Time,TemperatureF,DewpointF,PressureIn,WindDirection,WindDirectionDegrees,WindSpeedMPH,WindSpeedGustMPH,Humidity,HourlyPrecipIn,Conditions,Clouds,dailyrainin,SoftwareType,DateUTC
2013-03-15 00:00:00,30.9,17.1,28.46,NW,318,2.0,2.0,56,0.00,,---,0.00,VWS V14.01,2013-03-15 04:00:00,
2013-03-15 00:05:00,30.9,16.6,28.46,WNW,288,2.0,2.0,55,0.00,,---,0.00,VWS V14.01,2013-03-15 04:05:00,
2013-03-15 00:10:00,30.9,16.6,28.47,West,275,2.0,2.0,55,0.00,,---,0.00,VWS V14.01,2013-03-15 04:10:00,
2013-03-15 00:15:00,30.9,16.6,28.47,West,268,2.0,2.0,55,0.00,,---,0.00,VWS V14.01,2013-03-15 04:15:00,
2013-03-15 00:20:00,30.7,16.5,28.47,WNW,296,2.0,2.0,55,0.00,,---,0.00,VWS V14.01,2013-03-15 04:20:00,
2013-03-15 00:25:00,30.7,16.5,28.47,West,276,2.0,2.0,55,0.00,,---,0.00,VWS V14.01,2013-03-15 04:25:00,
2013-03-15 00:30:00,30.7,16.0,28.47,WNW,289,2.0,2.0,54,0.00,,---,0.00,VWS V14.01,2013-03-15 04:30:00,
2013-03-15 00:35:00,30.7,16.0,28.47,NNW,337,2.0,2.9,54,0.00,,---,0.00,VWS V14.01,2013-03-15 04:35:00,
2013-03-15 00:40:00,30.7,16.0,28.47,WNW,286,2.0,2.9,54,0.00,,---,0.00,VWS V14.01,2013-03-15 04:40:00,
2013-03-15 00:45:00,30.6,15.9,28.47,WNW,300,2.0,2.9,54,0.00,,---,0.00,VWS V14.01,2013-03-15 04:45:00,
2013-03-15 00:50:00,30.6,15.9,28.48,West,274,2.0,2.9,54,0.00,,---,0.00,VWS V14.01,2013-03-15 04:50:00,
2013-03-15 00:51:00,30.6,15.9,28.48,WSW,257,2.0,2.9,54,0.00,,---,0.00,VWS V14.01,2013-03-15 04:51:00,
2013-03-15 00:55:00,30.4,15.8,28.48,West,277,2.0,2.9,54,0.00,,---,0.00,VWS V14.01,2013-03-15 04:55:00,
2013-03-15 00:56:00,30.4,15.8,28.48,NW,313,2.0,2.9,54,0.00,,---,0.00,VWS V14.01,2013-03-15 04:56:00,
2013-03-15 01:00:00,30.4,15.8,28.48,SW,220,2.9,2.9,54,0.00,,---,0.00,VWS V14.01,2013-03-15 05:00:00,
2013-03-15 01:01:00,30.4,15.8,28.48,NW,309,2.9,2.9,54,0.00,,---,0.00,VWS V14.01,2013-03-15 05:01:00,
2013-03-15 01:05:00,30.4,15.8,28.48,WNW,286,2.9,2.9,54,0.00,,---,0.00,VWS V14.01,2013-03-15 05:05:00,
2013-03-15 01:06:00,30.4,15.8,28.48,NW,306,2.9,2.9,54,0.00,,---,0.00,VWS V14.01,2013-03-15 05:06:00,
2013-03-15 01:10:00,30.4,15.8,28.48,West,260,2.0,2.9,54,0.00,,---,0.00,VWS V14.01,2013-03-15 05:10:00,
2013-03-15 01:11:00,30.4,15.8,28.48,WNW,290,2.0,2.9,54,0.00,,---,0.00,VWS V14.01,2013-03-15 05:11:00,
2013-03-15 01:15:00,30.4,15.8,28.48,NNW,348,0.9,2.9,54,0.00,,---,0.00,VWS V14.01,2013-03-15 05:15:00,
2013-03-15 01:16:00,30.2,16.0,28.48,SSE,148,0.9,2.9,55,0.00,,---,0.00,VWS V14.01,2013-03-15 05:16:00,
2013-03-15 01:20:00,30.0,15.4,28.48,SSE,148,0.9,2.9,54,0.00,,---,0.00,VWS V14.01,2013-03-15 05:20:00,
2013-03-15 01:21:00,30.0,15.4,28.48,SSE,148,0.9,2.9,54,0.00,,---,0.00,VWS V14.01,2013-03-15 05:21:00,
2013-03-15 01:22:00,30.0,15.4,28.48,SSE,148,0.9,2.9,54,0.00,,---,0.00,VWS V14.01,2013-03-15 05:22:00,
2013-03-15 01:25:00,30.0,15.8,28.48,NNW,327,0.9,2.9,55,0.00,,---,0.00,VWS V14.01,2013-03-15 05:25:00,
2013-03-15 01:26:00,29.8,15.6,28.48,NNW,327,0.9,2.9,55,0.00,,---,0.00,VWS V14.01,2013-03-15 05:26:00,
2013-03-15 01:27:00,29.8,15.6,28.48,NNW,327,0.9,2.9,55,0.00,,---,0.00,VWS V14.01,2013-03-15 05:27:00,
2013-03-15 01:30:00,29.8,15.6,28.48,NNW,327,0.9,0.9,55,0.00,,---,0.00,VWS V14.01,2013-03-15 05:30:00,
2013-03-15 01:32:00,29.8,15.6,28.48,NNW,327,0.9,0.9,55,0.00,,---,0.00,VWS V14.01,2013-03-15 05:32:00,
2013-03-15 01:35:00,29.7,15.5,28.48,North,5,0.0,0.9,55,0.00,,---,0.00,VWS V14.01,2013-03-15 05:35:00,
2013-03-15 01:37:00,29.7,15.5,28.48,North,5,0.0,0.9,55,0.00,,---,0.00,VWS V14.01,2013-03-15 05:37:00,
2013-03-15 01:40:00,29.7,15.5,28.48,WNW,301,0.9,0.9,55,0.00,,---,0.00,VWS V14.01,2013-03-15 05:40:00,
2013-03-15 01:42:00,29.7,15.9,28.48,West,267,0.9,0.9,56,0.00,,---,0.00,VWS V14.01,2013-03-15 05:42:00,
2013-03-15 01:45:00,29.7,15.9,28.48,West,266,0.9,0.9,56,0.00,,---,0.00,VWS V14.01,2013-03-15 05:45:00,
2013-03-15 01:47:00,29.5,15.8,28.47,West,270,0.9,0.9,56,0.00,,---,0.00,VWS V14.01,2013-03-15 05:47:00,
2013-03-15 01:50:00,29.5,15.8,28.47,West,270,0.9,0.9,56,0.00,,---,0.00,VWS V14.01,2013-03-15 05:50:00,
2013-03-15 01:52:00,29.5,15.8,28.47,West,270,0.9,0.9,56,0.00,,---,0.00,VWS V14.01,2013-03-15 05:52:00,
2013-03-15 01:56:00,29.5,15.8,28.47,WNW,284,0.9,0.9,56,0.00,,---,0.00,VWS V14.01,2013-03-15 05:56:00,
2013-03-15 01:57:00,29.3,15.6,28.48,WNW,292,0.9,0.9,56,0.00,,---,0.00,VWS V14.01,2013-03-15 05:57:00,
2013-03-15 02:01:00,29.3,16.0,28.47,West,271,0.9,0.9,57,0.00,,---,0.00,VWS V14.01,2013-03-15 06:01:00,
2013-03-15 02:02:00,29.3,16.0,28.47,NW,309,0.9,0.9,57,0.00,,---,0.00,VWS V14.01,2013-03-15 06:02:00,
2013-03-15 02:07:00,29.1,15.8,28.47,WNW,283,2.0,2.0,57,0.00,,---,0.00,VWS V14.01,2013-03-15 06:07:00,
2013-03-15 02:12:00,28.9,15.6,28.47,NNW,329,0.9,2.0,57,0.00,,---,0.00,VWS V14.01,2013-03-15 06:12:00,
2013-03-15 02:17:00,28.9,16.0,28.47,NNW,342,0.9,2.0,58,0.00,,---,0.00,VWS V14.01,2013-03-15 06:17:00,
2013-03-15 02:18:00,28.9,16.0,28.47,West,272,0.9,2.0,58,0.00,,---,0.00,VWS V14.01,2013-03-15 06:18:00,
2013-03-15 02:22:00,28.9,16.0,28.47,West,272,0.9,2.0,58,0.00,,---,0.00,VWS V14.01,2013-03-15 06:22:00,
2013-03-15 02:23:00,28.9,16.0,28.48,West,277,0.9,2.0,58,0.00,,---,0.00,VWS V14.01,2013-03-15 06:23:00,
2013-03-15 02:27:00,28.8,15.9,28.48,West,278,0.9,2.0,58,0.00,,---,0.00,VWS V14.01,2013-03-15 06:27:00,
2013-03-15 02:28:00,28.8,15.9,28.48,West,278,0.9,2.0,58,0.00,,---,0.00,VWS V14.01,2013-03-15 06:28:00,
2013-03-15 02:32:00,28.8,15.9,28.48,West,278,0.9,0.9,58,0.00,,---,0.00,VWS V14.01,2013-03-15 06:32:00,
2013-03-15 02:33:00,28.8,15.9,28.48,WNW,298,0.9,0.9,58,0.00,,---,0.00,VWS V14.01,2013-03-15 06:33:00,
2013-03-15 02:37:00,28.8,15.9,28.48,West,278,0.9,0.9,58,0.00,,---,0.00,VWS V14.01,2013-03-15 06:37:00,
2013-03-15 02:38:00,28.8,16.3,28.48,West,268,0.9,0.9,59,0.00,,---,0.00,VWS V14.01,2013-03-15 06:38:00,
2013-03-15 02:41:00,28.8,15.8,29.28,SSW,195,3.0,6.0,58,0.00,,,0.00,meteohub,2013-03-15 06:41:00,
2013-03-15 02:42:00,28.8,16.3,28.48,WNW,282,0.9,0.9,59,0.00,,---,0.00,VWS V14.01,2013-03-15 06:42:00,
2013-03-15 02:43:00,28.6,16.1,28.48,WNW,282,0.9,0.9,59,0.00,,---,0.00,VWS V14.01,2013-03-15 06:43:00,
2013-03-15 02:47:00,28.6,15.7,28.48,WSW,242,0.9,0.9,58,0.00,,---,0.00,VWS V14.01,2013-03-15 06:47:00,
2013-03-15 02:48:00,28.6,15.7,28.48,WSW,242,0.9,0.9,58,0.00,,---,0.00,VWS V14.01,2013-03-15 06:48:00,
2013-03-15 02:52:00,28.6,16.1,28.48,WSW,242,0.0,0.9,59,0.00,,---,0.00,VWS V14.01,2013-03-15 06:52:00,
2013-03-15 02:53:00,28.6,16.1,28.48,WSW,242,0.0,0.9,59,0.00,,---,0.00,VWS V14.01,2013-03-15 06:53:00,
2013-03-15 02:57:00,28.4,15.9,28.48,WSW,242,0.0,0.9,59,0.00,,---,0.00,VWS V14.01,2013-03-15 06:57:00,
2013-03-15 02:58:00,28.4,15.9,28.48,WSW,242,0.0,0.9,59,0.00,,---,0.00,VWS V14.01,2013-03-15 06:58:00,
2013-03-15 03:02:00,28.2,15.7,28.48,West,265,0.0,0.0,59,0.00,,---,0.00,VWS V14.01,2013-03-15 07:02:00,
2013-03-15 03:03:00,28.2,15.7,28.48,West,265,0.0,0.0,59,0.00,,---,0.00,VWS V14.01,2013-03-15 07:03:00,
2013-03-15 03:07:00,28.2,15.7,28.48,WNW,300,0.9,0.9,59,0.00,,---,0.00,VWS V14.01,2013-03-15 07:07:00,
2013-03-15 03:08:00,28.2,15.7,28.48,WNW,300,0.9,0.9,59,0.00,,---,0.00,VWS V14.01,2013-03-15 07:08:00,
2013-03-15 03:09:00,28.2,15.7,28.48,NW,319,0.9,0.9,59,0.00,,---,0.00,VWS V14.01,2013-03-15 07:09:00,
2013-03-15 03:13:00,28.0,15.5,28.48,NW,321,0.9,0.9,59,0.00,,---,0.00,VWS V14.01,2013-03-15 07:13:00,
2013-03-15 03:14:00,28.0,15.5,28.48,NNW,342,0.9,0.9,59,0.00,,---,0.00,VWS V14.01,2013-03-15 07:14:00,
2013-03-15 03:18:00,28.0,15.5,28.47,NNW,342,0.9,0.9,59,0.00,,---,0.00,VWS V14.01,2013-03-15 07:18:00,
2013-03-15 03:19:00,28.0,15.5,28.47,SW,217,0.9,0.9,59,0.00,,---,0.00,VWS V14.01,2013-03-15 07:19:00,
2013-03-15 03:23:00,28.0,15.5,28.47,West,281,0.9,0.9,59,0.00,,---,0.00,VWS V14.01,2013-03-15 07:23:00,
2013-03-15 03:24:00,28.0,15.5,28.47,West,281,0.9,0.9,59,0.00,,---,0.00,VWS V14.01,2013-03-15 07:24:00,
2013-03-15 03:25:00,28.0,15.5,28.48,West,281,0.9,0.9,59,0.00,,---,0.00,VWS V14.01,2013-03-15 07:25:00,
2013-03-15 03:28:00,27.9,15.4,28.48,NNW,335,0.9,0.9,59,0.00,,---,0.00,VWS V14.01,2013-03-15 07:28:00,
2013-03-15 03:29:00,27.9,15.4,28.48,WNW,284,0.9,0.9,59,0.00,,---,0.00,VWS V14.01,2013-03-15 07:29:00,
2013-03-15 03:30:00,27.9,15.4,28.48,WNW,284,0.9,0.9,59,0.00,,---,0.00,VWS V14.01,2013-03-15 07:30:00,
2013-03-15 03:33:00,27.9,15.4,28.47,WSW,238,0.9,0.9,59,0.00,,---,0.00,VWS V14.01,2013-03-15 07:33:00,
2013-03-15 03:34:00,27.9,15.4,28.47,NNW,331,0.9,0.9,59,0.00,,---,0.00,VWS V14.01,2013-03-15 07:34:00,
2013-03-15 03:35:00,27.9,15.4,28.47,NNW,327,0.9,0.9,59,0.00,,---,0.00,VWS V14.01,2013-03-15 07:35:00,
2013-03-15 03:38:00,27.9,15.4,28.47,West,280,2.0,2.0,59,0.00,,---,0.00,VWS V14.01,2013-03-15 07:38:00,
2013-03-15 03:39:00,27.9,15.4,28.47,WNW,288,2.0,2.0,59,0.00,,---,0.00,VWS V14.01,2013-03-15 07:39:00,
2013-03-15 03:40:00,27.9,15.4,28.47,West,280,0.9,2.0,59,0.00,,---,0.00,VWS V14.01,2013-03-15 07:40:00,
2013-03-15 03:43:00,27.9,15.4,28.47,East,86,0.9,2.0,59,0.00,,---,0.00,VWS V14.01,2013-03-15 07:43:00,
2013-03-15 03:44:00,27.9,15.4,28.47,West,271,0.9,2.0,59,0.00,,---,0.00,VWS V14.01,2013-03-15 07:44:00,
2013-03-15 03:45:00,27.9,15.4,28.47,WNW,289,0.9,2.0,59,0.00,,---,0.00,VWS V14.01,2013-03-15 07:45:00,
2013-03-15 03:48:00,27.9,15.4,28.47,WNW,289,0.9,2.0,59,0.00,,---,0.00,VWS V14.01,2013-03-15 07:48:00,
2013-03-15 03:49:00,27.9,15.4,28.47,WNW,289,0.9,2.0,59,0.00,,---,0.00,VWS V14.01,2013-03-15 07:49:00,
2013-03-15 03:50:00,27.9,15.4,28.47,WNW,289,0.9,2.0,59,0.00,,---,0.00,VWS V14.01,2013-03-15 07:50:00,
2013-03-15 03:53:00,27.9,15.4,28.47,NW,315,0.9,2.0,59,0.00,,---,0.00,VWS V14.01,2013-03-15 07:53:00,
2013-03-15 03:54:00,27.9,15.4,28.47,NW,315,0.9,2.0,59,0.00,,---,0.00,VWS V14.01,2013-03-15 07:54:00,
2013-03-15 03:55:00,27.7,15.3,28.47,WSW,253,0.9,2.0,59,0.00,,---,0.00,VWS V14.01,2013-03-15 07:55:00,
2013-03-15 03:58:00,27.7,15.3,28.47,WSW,253,0.9,2.0,59,0.00,,---,0.00,VWS V14.01,2013-03-15 07:58:00,
2013-03-15 03:59:00,27.7,15.3,28.47,WSW,253,0.9,2.0,59,0.00,,---,0.00,VWS V14.01,2013-03-15 07:59:00,
2013-03-15 04:00:00,27.7,15.3,28.47,WSW,253,0.9,2.0,59,0.00,,---,0.00,VWS V14.01,2013-03-15 08:00:00,
2013-03-15 04:03:00,27.7,15.3,28.46,WSW,253,0.0,0.9,59,0.00,,---,0.00,VWS V14.01,2013-03-15 08:03:00,
2013-03-15 04:04:00,27.7,15.3,28.46,WSW,253,0.0,0.9,59,0.00,,---,0.00,VWS V14.01,2013-03-15 08:04:00,
2013-03-15 04:05:00,27.7,15.3,28.46,WSW,253,0.0,0.9,59,0.00,,---,0.00,VWS V14.01,2013-03-15 08:05:00,
2013-03-15 04:08:00,27.7,15.3,28.46,WSW,253,0.0,0.9,59,0.00,,---,0.00,VWS V14.01,2013-03-15 08:08:00,
2013-03-15 04:09:00,27.5,15.1,28.46,West,262,0.0,0.9,59,0.00,,---,0.00,VWS V14.01,2013-03-15 08:09:00,
2013-03-15 04:10:00,27.5,15.1,28.46,West,262,0.0,0.9,59,0.00,,---,0.00,VWS V14.01,2013-03-15 08:10:00,
2013-03-15 04:13:00,27.5,15.4,28.46,West,262,0.0,0.9,60,0.00,,---,0.00,VWS V14.01,2013-03-15 08:13:00,
2013-03-15 04:15:00,27.3,15.3,28.46,West,262,0.0,0.9,60,0.00,,---,0.00,VWS V14.01,2013-03-15 08:15:00,
2013-03-15 04:19:00,27.3,15.3,28.46,West,262,0.0,0.0,60,0.00,,---,0.00,VWS V14.01,2013-03-15 08:19:00,
2013-03-15 04:20:00,27.3,15.3,28.46,West,262,0.0,0.0,60,0.00,,---,0.00,VWS V14.01,2013-03-15 08:20:00,
2013-03-15 04:24:00,27.1,15.1,28.46,West,262,0.0,0.0,60,0.00,,---,0.00,VWS V14.01,2013-03-15 08:24:00,
2013-03-15 04:25:00,27.1,15.1,28.46,West,262,0.0,0.0,60,0.00,,---,0.00,VWS V14.01,2013-03-15 08:25:00,
2013-03-15 04:29:00,27.1,15.1,28.46,West,262,0.0,0.0,60,0.00,,---,0.00,VWS V14.01,2013-03-15 08:29:00,
2013-03-15 04:30:00,27.1,15.1,28.46,West,262,0.0,0.0,60,0.00,,---,0.00,VWS V14.01,2013-03-15 08:30:00,
2013-03-15 04:34:00,27.0,15.0,28.46,West,262,0.0,0.0,60,0.00,,---,0.00,VWS V14.01,2013-03-15 08:34:00,
2013-03-15 04:35:00,27.0,15.0,28.46,West,262,0.0,0.0,60,0.00,,---,0.00,VWS V14.01,2013-03-15 08:35:00,
2013-03-15 04:39:00,27.0,15.4,28.46,West,262,0.0,0.0,61,0.00,,---,0.00,VWS V14.01,2013-03-15 08:39:00,
2013-03-15 04:40:00,27.0,15.4,28.46,West,262,0.0,0.0,61,0.00,,---,0.00,VWS V14.01,2013-03-15 08:40:00,
2013-03-15 04:44:00,26.8,14.8,28.46,West,262,0.0,0.0,60,0.00,,---,0.00,VWS V14.01,2013-03-15 08:44:00,
2013-03-15 04:45:00,26.8,15.2,28.46,West,262,0.0,0.0,61,0.00,,---,0.00,VWS V14.01,2013-03-15 08:45:00,
2013-03-15 04:49:00,26.6,15.4,28.46,West,262,0.0,0.0,62,0.00,,---,0.00,VWS V14.01,2013-03-15 08:49:00,
2013-03-15 04:50:00,26.6,15.4,28.46,West,262,0.0,0.0,62,0.00,,---,0.00,VWS V14.01,2013-03-15 08:50:00,
2013-03-15 04:54:00,26.4,15.5,28.46,West,262,0.0,0.0,63,0.00,,---,0.00,VWS V14.01,2013-03-15 08:54:00,
2013-03-15 04:55:00,26.4,15.5,28.46,West,262,0.0,0.0,63,0.00,,---,0.00,VWS V14.01,2013-03-15 08:55:00,
2013-03-15 04:59:00,26.2,15.0,28.46,West,262,0.0,0.0,62,0.00,,---,0.00,VWS V14.01,2013-03-15 08:59:00,
2013-03-15 05:00:00,26.2,15.0,28.46,West,262,0.0,0.0,62,0.00,,---,0.00,VWS V14.01,2013-03-15 09:00:00,
2013-03-15 05:05:00,26.2,15.0,28.46,West,262,0.0,0.0,62,0.00,,---,0.00,VWS V14.01,2013-03-15 09:05:00,
2013-03-15 05:10:00,26.1,15.2,28.46,West,262,0.0,0.0,63,0.00,,---,0.00,VWS V14.01,2013-03-15 09:10:00,
2013-03-15 05:11:00,26.1,15.2,28.46,West,262,0.0,0.0,63,0.00,,---,0.00,VWS V14.01,2013-03-15 09:11:00,
2013-03-15 05:15:00,25.9,15.1,28.46,West,262,0.0,0.0,63,0.00,,---,0.00,VWS V14.01,2013-03-15 09:15:00,
2013-03-15 05:16:00,25.9,15.1,28.46,West,262,0.0,0.0,63,0.00,,---,0.00,VWS V14.01,2013-03-15 09:16:00,
2013-03-15 05:20:00,25.7,14.9,28.46,West,262,0.0,0.0,63,0.00,,---,0.00,VWS V14.01,2013-03-15 09:20:00,
2013-03-15 05:21:00,25.7,14.9,28.46,West,262,0.0,0.0,63,0.00,,---,0.00,VWS V14.01,2013-03-15 09:21:00,
2013-03-15 05:25:00,25.5,15.0,28.46,West,262,0.0,0.0,64,0.00,,---,0.00,VWS V14.01,2013-03-15 09:25:00,
2013-03-15 05:26:00,25.5,15.0,28.46,West,262,0.0,0.0,64,0.00,,---,0.00,VWS V14.01,2013-03-15 09:26:00,
2013-03-15 05:27:00,25.5,15.0,28.46,West,262,0.0,0.0,64,0.00,,---,0.00,VWS V14.01,2013-03-15 09:27:00,
2013-03-15 05:30:00,25.3,14.8,28.46,West,262,0.0,0.0,64,0.00,,---,0.00,VWS V14.01,2013-03-15 09:30:00,
2013-03-15 05:32:00,25.3,14.8,28.46,West,262,0.0,0.0,64,0.00,,---,0.00,VWS V14.01,2013-03-15 09:32:00,
2013-03-15 05:35:00,25.3,15.2,28.46,West,262,0.0,0.0,65,0.00,,---,0.00,VWS V14.01,2013-03-15 09:35:00,
2013-03-15 05:37:00,25.3,15.2,28.46,West,262,0.0,0.0,65,0.00,,---,0.00,VWS V14.01,2013-03-15 09:37:00,
2013-03-15 05:40:00,25.3,15.2,28.46,West,262,0.0,0.0,65,0.00,,---,0.00,VWS V14.01,2013-03-15 09:40:00,
2013-03-15 05:42:00,25.3,14.8,28.46,West,262,0.0,0.0,64,0.00,,---,0.00,VWS V14.01,2013-03-15 09:42:00,
2013-03-15 05:43:00,25.2,14.8,28.46,West,262,0.0,0.0,64,0.00,,---,0.00,VWS V14.01,2013-03-15 09:43:00,
2013-03-15 05:45:00,25.2,15.1,28.46,West,262,0.0,0.0,65,0.00,,---,0.00,VWS V14.01,2013-03-15 09:45:00,
2013-03-15 05:47:00,25.2,15.1,28.46,West,262,0.0,0.0,65,0.00,,---,0.00,VWS V14.01,2013-03-15 09:47:00,
2013-03-15 05:48:00,25.2,15.1,28.46,West,262,0.0,0.0,65,0.00,,---,0.00,VWS V14.01,2013-03-15 09:48:00,
2013-03-15 05:50:00,25.2,15.1,28.46,West,262,0.0,0.0,65,0.00,,---,0.00,VWS V14.01,2013-03-15 09:50:00,
2013-03-15 05:52:00,25.2,15.1,28.46,West,262,0.0,0.0,65,0.00,,---,0.00,VWS V14.01,2013-03-15 09:52:00,
2013-03-15 05:53:00,25.0,14.9,28.46,West,262,0.0,0.0,65,0.00,,---,0.00,VWS V14.01,2013-03-15 09:53:00,
2013-03-15 05:55:00,25.0,14.9,28.46,West,262,0.0,0.0,65,0.00,,---,0.00,VWS V14.01,2013-03-15 09:55:00,
2013-03-15 05:57:00,25.0,14.9,28.46,West,262,0.0,0.0,65,0.00,,---,0.00,VWS V14.01,2013-03-15 09:57:00,
2013-03-15 05:58:00,25.0,14.9,28.46,West,262,0.0,0.0,65,0.00,,---,0.00,VWS V14.01,2013-03-15 09:58:00,
2013-03-15 06:01:00,24.8,14.7,28.46,West,262,0.0,0.0,65,0.00,,---,0.00,VWS V14.01,2013-03-15 10:01:00,
2013-03-15 06:02:00,24.8,14.7,28.46,West,262,0.0,0.0,65,0.00,,---,0.00,VWS V14.01,2013-03-15 10:02:00,
2013-03-15 06:03:00,24.8,14.7,28.46,West,262,0.0,0.0,65,0.00,,---,0.00,VWS V14.01,2013-03-15 10:03:00,
2013-03-15 06:06:00,24.8,14.4,28.46,West,262,0.0,0.0,64,0.00,,---,0.00,VWS V14.01,2013-03-15 10:06:00,
2013-03-15 06:07:00,24.6,14.2,28.46,West,262,0.0,0.0,64,0.00,,---,0.00,VWS V14.01,2013-03-15 10:07:00,
2013-03-15 06:08:00,24.6,14.2,28.46,West,262,0.0,0.0,64,0.00,,---,0.00,VWS V14.01,2013-03-15 10:08:00,
2013-03-15 06:11:00,24.6,14.2,28.46,West,262,0.0,0.0,64,0.00,,---,0.00,VWS V14.01,2013-03-15 10:11:00,
2013-03-15 06:12:00,24.6,14.2,28.46,West,262,0.0,0.0,64,0.00,,---,0.00,VWS V14.01,2013-03-15 10:12:00,
2013-03-15 06:13:00,24.6,14.2,28.46,West,262,0.0,0.0,64,0.00,,---,0.00,VWS V14.01,2013-03-15 10:13:00,
2013-03-15 06:16:00,24.8,14.4,28.46,West,262,0.0,0.0,64,0.00,,---,0.00,VWS V14.01,2013-03-15 10:16:00,
2013-03-15 06:17:00,24.8,14.4,28.46,West,262,0.0,0.0,64,0.00,,---,0.00,VWS V14.01,2013-03-15 10:17:00,
2013-03-15 06:18:00,24.8,14.4,28.46,West,262,0.0,0.0,64,0.00,,---,0.00,VWS V14.01,2013-03-15 10:18:00,
2013-03-15 06:21:00,24.8,14.4,28.46,West,262,0.0,0.0,64,0.00,,---,0.00,VWS V14.01,2013-03-15 10:21:00,
2013-03-15 06:22:00,24.8,14.4,28.46,West,262,0.0,0.0,64,0.00,,---,0.00,VWS V14.01,2013-03-15 10:22:00,
2013-03-15 06:23:00,24.8,14.4,28.46,West,262,0.0,0.0,64,0.00,,---,0.00,VWS V14.01,2013-03-15 10:23:00,
2013-03-15 06:26:00,24.8,14.0,28.46,West,262,0.0,0.0,63,0.00,,---,0.00,VWS V14.01,2013-03-15 10:26:00,
2013-03-15 06:27:00,24.8,14.0,28.46,West,262,0.0,0.0,63,0.00,,---,0.00,VWS V14.01,2013-03-15 10:27:00,
2013-03-15 06:28:00,24.8,14.0,28.46,West,262,0.0,0.0,63,0.00,,---,0.00,VWS V14.01,2013-03-15 10:28:00,
2013-03-15 06:31:00,24.8,14.0,28.46,West,262,0.0,0.0,63,0.00,,---,0.00,VWS V14.01,2013-03-15 10:31:00,
2013-03-15 06:32:00,24.8,14.0,28.46,West,262,0.0,0.0,63,0.00,,---,0.00,VWS V14.01,2013-03-15 10:32:00,
2013-03-15 06:33:00,24.8,14.0,28.46,West,262,0.0,0.0,63,0.00,,---,0.00,VWS V14.01,2013-03-15 10:33:00,
2013-03-15 06:34:00,24.8,14.0,28.46,West,262,0.0,0.0,63,0.00,,---,0.00,VWS V14.01,2013-03-15 10:34:00,
2013-03-15 06:37:00,24.8,14.0,28.46,West,262,0.0,0.0,63,0.00,,---,0.00,VWS V14.01,2013-03-15 10:37:00,
2013-03-15 06:38:00,24.8,14.0,28.46,West,262,0.0,0.0,63,0.00,,---,0.00,VWS V14.01,2013-03-15 10:38:00,
2013-03-15 06:39:00,24.8,14.0,28.46,West,262,0.0,0.0,63,0.00,,---,0.00,VWS V14.01,2013-03-15 10:39:00,
2013-03-15 06:42:00,24.8,14.0,28.46,West,262,0.0,0.0,63,0.00,,---,0.00,VWS V14.01,2013-03-15 10:42:00,
2013-03-15 06:43:00,24.8,14.0,28.46,West,262,0.0,0.0,63,0.00,,---,0.00,VWS V14.01,2013-03-15 10:43:00,
2013-03-15 06:44:00,24.8,14.0,28.46,West,262,0.0,0.0,63,0.00,,---,0.00,VWS V14.01,2013-03-15 10:44:00,
2013-03-15 06:47:00,24.8,14.0,28.46,West,262,0.0,0.0,63,0.00,,---,0.00,VWS V14.01,2013-03-15 10:47:00,
2013-03-15 06:48:00,24.8,14.0,28.46,West,262,0.0,0.0,63,0.00,,---,0.00,VWS V14.01,2013-03-15 10:48:00,
2013-03-15 06:49:00,24.8,14.0,28.46,West,262,0.0,0.0,63,0.00,,---,0.00,VWS V14.01,2013-03-15 10:49:00,
2013-03-15 06:52:00,24.8,14.0,28.46,West,262,0.0,0.0,63,0.00,,---,0.00,VWS V14.01,2013-03-15 10:52:00,
2013-03-15 06:53:00,24.6,13.8,28.46,West,262,0.0,0.0,63,0.00,,---,0.00,VWS V14.01,2013-03-15 10:53:00,
2013-03-15 06:54:00,24.8,14.0,28.46,West,262,0.0,0.0,63,0.00,,---,0.00,VWS V14.01,2013-03-15 10:54:00,
2013-03-15 06:57:00,24.8,14.4,28.46,West,262,0.0,0.0,64,0.00,,---,0.00,VWS V14.01,2013-03-15 10:57:00,
2013-03-15 06:58:00,24.8,14.4,28.46,West,262,0.0,0.0,64,0.00,,---,0.00,VWS V14.01,2013-03-15 10:58:00,
2013-03-15 06:59:00,24.8,14.4,28.46,West,262,0.0,0.0,64,0.00,,---,0.00,VWS V14.01,2013-03-15 10:59:00,
2013-03-15 07:02:00,24.6,14.2,28.46,West,262,0.0,0.0,64,0.00,,---,0.00,VWS V14.01,2013-03-15 11:02:00,
2013-03-15 07:03:00,24.6,14.2,28.46,West,262,0.0,0.0,64,0.00,,---,0.00,VWS V14.01,2013-03-15 11:03:00,
2013-03-15 07:04:00,24.6,14.2,28.46,West,262,0.0,0.0,64,0.00,,---,0.00,VWS V14.01,2013-03-15 11:04:00,
2013-03-15 07:07:00,24.6,14.5,28.46,West,262,0.0,0.0,65,0.00,,---,0.00,VWS V14.01,2013-03-15 11:07:00,
2013-03-15 07:08:00,24.6,14.5,28.46,West,262,0.0,0.0,65,0.00,,---,0.00,VWS V14.01,2013-03-15 11:08:00,
2013-03-15 07:09:00,24.6,14.5,28.46,West,262,0.0,0.0,65,0.00,,---,0.00,VWS V14.01,2013-03-15 11:09:00,
2013-03-15 07:12:00,24.6,14.5,28.46,West,262,0.0,0.0,65,0.00,,---,0.00,VWS V14.01,2013-03-15 11:12:00,
2013-03-15 07:13:00,24.6,14.5,28.46,West,262,0.0,0.0,65,0.00,,---,0.00,VWS V14.01,2013-03-15 11:13:00,
2013-03-15 07:14:00,24.6,14.5,28.46,West,262,0.0,0.0,65,0.00,,---,0.00,VWS V14.01,2013-03-15 11:14:00,
2013-03-15 07:17:00,24.6,14.5,28.46,West,262,0.0,0.0,65,0.00,,---,0.00,VWS V14.01,2013-03-15 11:17:00,
2013-03-15 07:18:00,24.6,14.5,28.46,West,262,0.0,0.0,65,0.00,,---,0.00,VWS V14.01,2013-03-15 11:18:00,
2013-03-15 07:19:00,24.6,14.9,28.46,West,262,0.0,0.0,66,0.00,,---,0.00,VWS V14.01,2013-03-15 11:19:00,
2013-03-15 07:22:00,24.6,14.9,28.46,West,262,0.0,0.0,66,0.00,,---,0.00,VWS V14.01,2013-03-15 11:22:00,
2013-03-15 07:23:00,24.6,14.9,28.46,West,262,0.0,0.0,66,0.00,,---,0.00,VWS V14.01,2013-03-15 11:23:00,
2013-03-15 07:24:00,24.6,14.9,28.46,West,262,0.0,0.0,66,0.00,,---,0.00,VWS V14.01,2013-03-15 11:24:00,
2013-03-15 07:27:00,24.4,14.7,28.46,West,262,0.0,0.0,66,0.00,,---,0.00,VWS V14.01,2013-03-15 11:27:00,
2013-03-15 07:28:00,24.4,14.7,28.46,West,262,0.0,0.0,66,0.00,,---,0.00,VWS V14.01,2013-03-15 11:28:00,
2013-03-15 07:29:00,24.4,14.7,28.46,West,262,0.0,0.0,66,0.00,,---,0.00,VWS V14.01,2013-03-15 11:29:00,
2013-03-15 07:32:00,24.4,14.7,28.46,West,262,0.0,0.0,66,0.00,,---,0.00,VWS V14.01,2013-03-15 11:32:00,
2013-03-15 07:33:00,24.4,14.7,28.46,West,262,0.0,0.0,66,0.00,,---,0.00,VWS V14.01,2013-03-15 11:33:00,
2013-03-15 07:34:00,24.6,14.9,28.46,West,262,0.0,0.0,66,0.00,,---,0.00,VWS V14.01,2013-03-15 11:34:00,
2013-03-15 07:37:00,24.6,14.9,28.46,West,262,0.0,0.0,66,0.00,,---,0.00,VWS V14.01,2013-03-15 11:37:00,
2013-03-15 07:38:00,24.6,14.9,28.46,West,262,0.0,0.0,66,0.00,,---,0.00,VWS V14.01,2013-03-15 11:38:00,
2013-03-15 07:39:00,24.4,14.7,28.46,West,262,0.0,0.0,66,0.00,,---,0.00,VWS V14.01,2013-03-15 11:39:00,
2013-03-15 07:42:00,24.6,15.2,28.46,West,262,0.0,0.0,67,0.00,,---,0.00,VWS V14.01,2013-03-15 11:42:00,
2013-03-15 07:43:00,24.6,15.2,28.46,West,262,0.0,0.0,67,0.00,,---,0.00,VWS V14.01,2013-03-15 11:43:00,
2013-03-15 07:44:00,24.6,15.2,28.46,West,262,0.0,0.0,67,0.00,,---,0.00,VWS V14.01,2013-03-15 11:44:00,
2013-03-15 07:48:00,24.6,15.2,28.46,West,262,0.0,0.0,67,0.00,,---,0.00,VWS V14.01,2013-03-15 11:48:00,
2013-03-15 07:49:00,24.6,15.2,28.46,West,262,0.0,0.0,67,0.00,,---,0.00,VWS V14.01,2013-03-15 11:49:00,
2013-03-15 07:53:00,24.6,15.2,28.46,West,262,0.0,0.0,67,0.00,,---,0.00,VWS V14.01,2013-03-15 11:53:00,
2013-03-15 07:54:00,24.6,15.2,28.46,West,262,0.0,0.0,67,0.00,,---,0.00,VWS V14.01,2013-03-15 11:54:00,
2013-03-15 07:58:00,24.6,15.6,28.45,West,262,0.0,0.0,68,0.00,,---,0.00,VWS V14.01,2013-03-15 11:58:00,
2013-03-15 07:59:00,24.6,15.6,28.46,West,262,0.0,0.0,68,0.00,,---,0.00,VWS V14.01,2013-03-15 11:59:00,
2013-03-15 08:03:00,24.8,15.8,28.46,West,262,0.0,0.0,68,0.00,,---,0.00,VWS V14.01,2013-03-15 12:03:00,
2013-03-15 08:04:00,24.8,15.8,28.45,West,262,0.0,0.0,68,0.00,,---,0.00,VWS V14.01,2013-03-15 12:04:00,
2013-03-15 08:05:00,24.8,15.8,28.45,West,262,0.0,0.0,68,0.00,,---,0.00,VWS V14.01,2013-03-15 12:05:00,
2013-03-15 08:08:00,25.0,15.9,28.45,West,262,0.0,0.0,68,0.00,,---,0.00,VWS V14.01,2013-03-15 12:08:00,
2013-03-15 08:09:00,25.0,15.9,28.45,West,262,0.0,0.0,68,0.00,,---,0.00,VWS V14.01,2013-03-15 12:09:00,
2013-03-15 08:10:00,25.0,15.9,28.45,West,262,0.0,0.0,68,0.00,,---,0.00,VWS V14.01,2013-03-15 12:10:00,
2013-03-15 08:13:00,25.0,16.3,28.45,West,262,0.0,0.0,69,0.00,,---,0.00,VWS V14.01,2013-03-15 12:13:00,
2013-03-15 08:14:00,25.0,16.3,28.45,West,262,0.0,0.0,69,0.00,,---,0.00,VWS V14.01,2013-03-15 12:14:00,
2013-03-15 08:15:00,25.2,16.5,28.46,West,262,0.0,0.0,69,0.00,,---,0.00,VWS V14.01,2013-03-15 12:15:00,
2013-03-15 08:18:00,25.2,17.1,28.46,West,262,0.0,0.0,71,0.00,,---,0.00,VWS V14.01,2013-03-15 12:18:00,
2013-03-15 08:19:00,25.2,17.1,28.46,West,262,0.0,0.0,71,0.00,,---,0.00,VWS V14.01,2013-03-15 12:19:00,
2013-03-15 08:20:00,25.2,17.1,28.46,West,262,0.0,0.0,71,0.00,,---,0.00,VWS V14.01,2013-03-15 12:20:00,
2013-03-15 08:23:00,25.3,17.5,28.46,West,262,0.0,0.0,72,0.00,,---,0.00,VWS V14.01,2013-03-15 12:23:00,
2013-03-15 08:24:00,25.5,17.8,28.46,West,262,0.0,0.0,72,0.00,,---,0.00,VWS V14.01,2013-03-15 12:24:00,
2013-03-15 08:25:00,25.5,18.1,28.45,West,262,0.0,0.0,73,0.00,,---,0.00,VWS V14.01,2013-03-15 12:25:00,
2013-03-15 08:28:00,25.9,18.8,28.45,West,262,0.9,0.9,74,0.00,,---,0.00,VWS V14.01,2013-03-15 12:28:00,
2013-03-15 08:29:00,26.1,19.0,28.45,West,262,0.9,0.9,74,0.00,,---,0.00,VWS V14.01,2013-03-15 12:29:00,
2013-03-15 08:30:00,26.1,19.0,28.45,West,262,0.9,0.9,74,0.00,,---,0.00,VWS V14.01,2013-03-15 12:30:00,
2013-03-15 08:33:00,26.2,18.7,28.45,West,262,0.9,0.9,73,0.00,,---,0.00,VWS V14.01,2013-03-15 12:33:00,
2013-03-15 08:34:00,26.2,18.7,28.45,West,262,0.9,0.9,73,0.00,,---,0.00,VWS V14.01,2013-03-15 12:34:00,
2013-03-15 08:35:00,26.4,18.9,28.45,West,262,0.9,0.9,73,0.00,,---,0.00,VWS V14.01,2013-03-15 12:35:00,
2013-03-15 08:38:00,26.4,18.9,28.44,West,262,0.9,0.9,73,0.00,,---,0.00,VWS V14.01,2013-03-15 12:38:00,
2013-03-15 08:39:00,26.6,19.1,28.44,West,262,0.9,0.9,73,0.00,,---,0.00,VWS V14.01,2013-03-15 12:39:00,
2013-03-15 08:40:00,26.8,19.3,28.44,West,262,0.9,0.9,73,0.00,,---,0.00,VWS V14.01,2013-03-15 12:40:00,
2013-03-15 08:43:00,27.0,19.5,28.44,West,262,0.9,0.9,73,0.00,,---,0.00,VWS V14.01,2013-03-15 12:43:00,
2013-03-15 08:44:00,27.0,19.2,28.44,West,262,0.9,0.9,72,0.00,,---,0.00,VWS V14.01,2013-03-15 12:44:00,
2013-03-15 08:45:00,27.0,19.2,28.44,West,262,0.9,0.9,72,0.00,,---,0.00,VWS V14.01,2013-03-15 12:45:00,
2013-03-15 08:48:00,27.3,19.1,28.44,West,262,0.9,0.9,71,0.00,,---,0.00,VWS V14.01,2013-03-15 12:48:00,
2013-03-15 08:49:00,27.3,19.1,28.44,West,262,2.0,2.0,71,0.00,,---,0.00,VWS V14.01,2013-03-15 12:49:00,
2013-03-15 08:50:00,27.3,19.1,28.44,West,262,0.9,2.0,71,0.00,,---,0.00,VWS V14.01,2013-03-15 12:50:00,
2013-03-15 08:51:00,27.5,19.7,28.44,West,262,0.9,2.0,72,0.00,,---,0.00,VWS V14.01,2013-03-15 12:51:00,
2013-03-15 08:53:00,27.7,19.9,28.44,West,262,0.9,2.0,72,0.00,,---,0.00,VWS V14.01,2013-03-15 12:53:00,
2013-03-15 08:54:00,27.9,20.1,28.44,West,262,0.9,2.0,72,0.00,,---,0.00,VWS V14.01,2013-03-15 12:54:00,
2013-03-15 08:55:00,27.9,20.1,28.44,West,262,0.9,2.0,72,0.00,,---,0.00,VWS V14.01,2013-03-15 12:55:00,
2013-03-15 08:56:00,27.9,20.1,28.44,West,262,0.9,2.0,72,0.00,,---,0.00,VWS V14.01,2013-03-15 12:56:00,
2013-03-15 08:58:00,28.0,20.2,28.44,West,262,0.9,2.0,72,0.00,,---,0.00,VWS V14.01,2013-03-15 12:58:00,
2013-03-15 08:59:00,28.0,20.2,28.44,West,262,0.9,2.0,72,0.00,,---,0.00,VWS V14.01,2013-03-15 12:59:00,
2013-03-15 09:00:00,28.2,20.4,28.44,West,262,2.0,2.0,72,0.00,,---,0.00,VWS V14.01,2013-03-15 13:00:00,
2013-03-15 09:01:00,28.2,20.0,28.44,West,262,2.0,2.0,71,0.00,,---,0.00,VWS V14.01,2013-03-15 13:01:00,
2013-03-15 09:03:00,28.6,20.1,28.44,West,262,2.0,2.0,70,0.00,,---,0.00,VWS V14.01,2013-03-15 13:03:00,
2013-03-15 09:04:00,28.8,20.3,28.43,West,262,2.0,2.0,70,0.00,,---,0.00,VWS V14.01,2013-03-15 13:04:00,
2013-03-15 09:05:00,28.8,20.3,28.44,West,262,2.0,2.0,70,0.00,,---,0.00,VWS V14.01,2013-03-15 13:05:00,
2013-03-15 09:07:00,28.9,20.0,28.44,West,262,2.0,2.0,69,0.00,,---,0.00,VWS V14.01,2013-03-15 13:07:00,
2013-03-15 09:08:00,29.1,20.2,28.43,West,262,2.0,2.0,69,0.00,,---,0.00,VWS V14.01,2013-03-15 13:08:00,
2013-03-15 09:09:00,29.1,20.2,28.43,West,262,2.0,2.0,69,0.00,,---,0.00,VWS V14.01,2013-03-15 13:09:00,
2013-03-15 09:10:00,29.3,20.4,28.43,West,262,2.0,2.0,69,0.00,,---,0.00,VWS V14.01,2013-03-15 13:10:00,
2013-03-15 09:12:00,29.5,20.6,28.43,West,262,2.0,2.0,69,0.00,,---,0.00,VWS V14.01,2013-03-15 13:12:00,
2013-03-15 09:13:00,29.7,20.5,28.43,West,262,2.0,2.0,68,0.00,,---,0.00,VWS V14.01,2013-03-15 13:13:00,
2013-03-15 09:14:00,29.7,20.5,28.43,West,262,2.9,2.9,68,0.00,,---,0.00,VWS V14.01,2013-03-15 13:14:00,
2013-03-15 09:15:00,29.7,20.5,28.43,West,262,2.9,2.9,68,0.00,,---,0.00,VWS V14.01,2013-03-15 13:15:00,
2013-03-15 09:17:00,29.8,20.5,28.43,West,262,2.9,2.9,68,0.00,,---,0.00,VWS V14.01,2013-03-15 13:17:00,
2013-03-15 09:18:00,30.0,20.7,28.43,West,262,2.0,2.9,68,0.00,,---,0.00,VWS V14.01,2013-03-15 13:18:00,
2013-03-15 09:19:00,30.0,20.7,28.43,West,262,2.9,2.9,68,0.00,,---,0.00,VWS V14.01,2013-03-15 13:19:00,
2013-03-15 09:20:00,30.0,20.7,28.43,West,262,2.9,2.9,68,0.00,,---,0.00,VWS V14.01,2013-03-15 13:20:00,
2013-03-15 09:22:00,30.4,20.8,28.43,West,262,2.9,2.9,67,0.00,,---,0.00,VWS V14.01,2013-03-15 13:22:00,
2013-03-15 09:23:00,30.4,20.8,28.43,West,262,2.9,2.9,67,0.00,,---,0.00,VWS V14.01,2013-03-15 13:23:00,
2013-03-15 09:24:00,30.6,21.0,28.43,West,262,2.9,2.9,67,0.00,,---,0.00,VWS V14.01,2013-03-15 13:24:00,
2013-03-15 09:25:00,30.6,21.0,28.43,West,262,2.9,2.9,67,0.00,,---,0.00,VWS V14.01,2013-03-15 13:25:00,
2013-03-15 09:27:00,30.7,21.1,28.43,West,262,2.9,2.9,67,0.00,,---,0.00,VWS V14.01,2013-03-15 13:27:00,
2013-03-15 09:28:00,30.7,21.4,28.43,West,262,2.9,2.9,68,0.00,,---,0.00,VWS V14.01,2013-03-15 13:28:00,
2013-03-15 09:29:00,30.9,21.2,28.43,West,262,2.9,2.9,67,0.00,,---,0.00,VWS V14.01,2013-03-15 13:29:00,
2013-03-15 09:30:00,30.9,21.6,28.43,West,262,2.9,2.9,68,0.00,,---,0.00,VWS V14.01,2013-03-15 13:30:00,
2013-03-15 09:32:00,31.1,21.8,28.43,West,262,2.9,2.9,68,0.00,,---,0.00,VWS V14.01,2013-03-15 13:32:00,
2013-03-15 09:33:00,31.3,22.0,28.43,SSW,207,2.9,2.9,68,0.00,,---,0.00,VWS V14.01,2013-03-15 13:33:00,
2013-03-15 09:35:00,31.5,22.2,28.43,SSW,210,2.9,2.9,68,0.00,,---,0.00,VWS V14.01,2013-03-15 13:35:00,
2013-03-15 09:36:00,31.5,22.2,28.43,SW,231,2.9,2.9,68,0.00,,---,0.00,VWS V14.01,2013-03-15 13:36:00,
2013-03-15 09:37:00,31.6,22.3,28.43,SW,231,2.9,2.9,68,0.00,,---,0.00,VWS V14.01,2013-03-15 13:37:00,
2013-03-15 09:38:00,31.6,22.3,28.43,SW,231,2.9,2.9,68,0.00,,---,0.00,VWS V14.01,2013-03-15 13:38:00,
2013-03-15 09:40:00,31.8,22.5,28.43,SW,232,2.9,2.9,68,0.00,,---,0.00,VWS V14.01,2013-03-15 13:40:00,
2013-03-15 09:41:00,31.8,22.5,28.43,SSW,209,2.9,2.9,68,0.00,,---,0.00,VWS V14.01,2013-03-15 13:41:00,
2013-03-15 09:42:00,31.8,22.5,28.43,SSW,209,2.9,2.9,68,0.00,,---,0.00,VWS V14.01,2013-03-15 13:42:00,
2013-03-15 09:43:00,32.2,22.8,28.43,SW,234,2.9,2.9,68,0.00,,---,0.00,VWS V14.01,2013-03-15 13:43:00,
2013-03-15 09:45:00,32.2,22.8,28.43,WSW,239,2.9,2.9,68,0.00,,---,0.00,VWS V14.01,2013-03-15 13:45:00,
2013-03-15 09:46:00,32.4,23.0,28.43,SW,228,2.9,2.9,68,0.00,,---,0.00,VWS V14.01,2013-03-15 13:46:00,
2013-03-15 09:47:00,32.4,23.4,28.43,SW,233,2.9,2.9,69,0.00,,---,0.00,VWS V14.01,2013-03-15 13:47:00,
2013-03-15 09:48:00,32.5,23.1,28.43,SW,217,2.9,2.9,68,0.00,,---,0.00,VWS V14.01,2013-03-15 13:48:00,
2013-03-15 09:50:00,32.5,23.1,28.43,SW,223,2.9,2.9,68,0.00,,---,0.00,VWS V14.01,2013-03-15 13:50:00,
2013-03-15 09:51:00,32.5,23.1,28.43,SW,223,2.9,2.9,68,0.00,,---,0.00,VWS V14.01,2013-03-15 13:51:00,
2013-03-15 09:52:00,32.5,23.1,28.43,SW,223,2.9,2.9,68,0.00,,---,0.00,VWS V14.01,2013-03-15 13:52:00,
2013-03-15 09:53:00,32.7,23.3,28.43,WSW,237,2.9,2.9,68,0.00,,---,0.00,VWS V14.01,2013-03-15 13:53:00,
2013-03-15 09:55:00,32.7,23.7,28.43,WSW,237,2.9,2.9,69,0.00,,---,0.00,VWS V14.01,2013-03-15 13:55:00,
2013-03-15 09:56:00,32.9,23.5,28.43,WSW,238,2.9,2.9,68,0.00,,---,0.00,VWS V14.01,2013-03-15 13:56:00,
2013-03-15 09:57:00,32.9,23.5,28.43,SW,229,2.9,2.9,68,0.00,,---,0.00,VWS V14.01,2013-03-15 13:57:00,
2013-03-15 09:58:00,32.9,23.5,28.43,West,263,2.9,2.9,68,0.00,,---,0.00,VWS V14.01,2013-03-15 13:58:00,
2013-03-15 10:00:00,33.1,23.7,28.43,West,263,2.9,2.9,68,0.00,,---,0.00,VWS V14.01,2013-03-15 14:00:00,
2013-03-15 10:01:00,33.1,23.4,28.43,SW,235,2.9,2.9,67,0.00,,---,0.00,VWS V14.01,2013-03-15 14:01:00,
2013-03-15 10:03:00,33.1,23.4,28.43,SW,216,2.9,2.9,67,0.00,,---,0.00,VWS V14.01,2013-03-15 14:03:00,
2013-03-15 10:04:00,33.1,23.4,28.43,SW,224,2.9,2.9,67,0.00,,---,0.00,VWS V14.01,2013-03-15 14:04:00,
2013-03-15 10:05:00,33.1,23.4,28.43,SW,222,2.9,2.9,67,0.00,,---,0.00,VWS V14.01,2013-03-15 14:05:00,
2013-03-15 10:06:00,33.1,23.4,28.42,WSW,243,4.0,4.0,67,0.00,,---,0.00,VWS V14.01,2013-03-15 14:06:00,
2013-03-15 10:08:00,33.1,23.4,28.42,SW,236,4.0,4.0,67,0.00,,---,0.00,VWS V14.01,2013-03-15 14:08:00,
2013-03-15 10:09:00,33.3,23.5,28.42,WSW,252,4.0,4.0,67,0.00,,---,0.00,VWS V14.01,2013-03-15 14:09:00,
2013-03-15 10:10:00,33.3,23.9,28.42,SW,235,4.0,4.0,68,0.00,,---,0.00,VWS V14.01,2013-03-15 14:10:00,
2013-03-15 10:12:00,33.4,23.6,28.42,WSW,240,4.0,4.0,67,0.00,,---,0.00,VWS V14.01,2013-03-15 14:12:00,
2013-03-15 10:13:00,33.4,23.6,28.42,SW,232,4.0,4.0,67,0.00,,---,0.00,VWS V14.01,2013-03-15 14:13:00,
2013-03-15 10:14:00,33.4,23.6,28.42,WSW,245,4.0,4.0,67,0.00,,---,0.00,VWS V14.01,2013-03-15 14:14:00,
2013-03-15 10:15:00,33.6,23.8,28.42,WSW,245,4.0,4.0,67,0.00,,---,0.00,VWS V14.01,2013-03-15 14:15:00,
2013-03-15 10:17:00,33.8,24.4,28.42,SW,232,2.9,4.0,68,0.00,,---,0.00,VWS V14.01,2013-03-15 14:17:00,
2013-03-15 10:18:00,34.0,24.6,28.42,SSW,200,2.9,4.0,68,0.00,,---,0.00,VWS V14.01,2013-03-15 14:18:00,
2013-03-15 10:19:00,34.2,24.8,28.42,SW,214,2.9,4.0,68,0.00,,---,0.00,VWS V14.01,2013-03-15 14:19:00,
2013-03-15 10:20:00,34.2,24.8,28.42,SW,215,2.9,4.0,68,0.00,,---,0.00,VWS V14.01,2013-03-15 14:20:00,
2013-03-15 10:22:00,34.3,25.2,28.41,WNW,303,2.0,4.0,69,0.00,,---,0.00,VWS V14.01,2013-03-15 14:22:00,
2013-03-15 10:23:00,34.5,25.0,28.41,SW,227,2.9,4.0,68,0.00,,---,0.00,VWS V14.01,2013-03-15 14:23:00,
2013-03-15 10:24:00,34.7,24.9,28.41,SW,217,2.9,4.0,67,0.00,,---,0.00,VWS V14.01,2013-03-15 14:24:00,
2013-03-15 10:25:00,34.9,25.1,28.41,SSW,213,4.0,4.0,67,0.00,,---,0.00,VWS V14.01,2013-03-15 14:25:00,
2013-03-15 10:27:00,35.1,24.9,28.41,NW,304,4.0,4.0,66,0.00,,---,0.00,VWS V14.01,2013-03-15 14:27:00,
2013-03-15 10:28:00,35.2,25.0,28.41,West,271,4.0,4.0,66,0.00,,---,0.00,VWS V14.01,2013-03-15 14:28:00,
2013-03-15 10:29:00,35.2,25.0,28.41,NNW,332,4.0,4.0,66,0.00,,---,0.00,VWS V14.01,2013-03-15 14:29:00,
2013-03-15 10:30:00,35.6,25.4,28.41,WSW,240,4.0,4.0,66,0.00,,---,0.00,VWS V14.01,2013-03-15 14:30:00,
2013-03-15 10:32:00,35.8,25.2,28.41,SW,235,4.0,4.0,65,0.00,,---,0.00,VWS V14.01,2013-03-15 14:32:00,
2013-03-15 10:33:00,36.0,25.4,28.41,SW,234,4.9,4.9,65,0.00,,---,0.00,VWS V14.01,2013-03-15 14:33:00,
2013-03-15 10:34:00,36.0,25.4,28.41,WSW,246,4.0,4.9,65,0.00,,---,0.00,VWS V14.01,2013-03-15 14:34:00,
2013-03-15 10:35:00,36.3,25.7,28.41,WSW,238,4.0,4.9,65,0.00,,---,0.00,VWS V14.01,2013-03-15 14:35:00,
2013-03-15 10:37:00,36.3,25.7,28.41,West,274,4.0,4.0,65,0.00,,---,0.00,VWS V14.01,2013-03-15 14:37:00,
2013-03-15 10:38:00,36.7,26.1,28.40,SSW,209,4.0,4.0,65,0.00,,---,0.00,VWS V14.01,2013-03-15 14:38:00,
2013-03-15 10:39:00,36.9,26.2,28.41,SW,231,4.0,4.0,65,0.00,,---,0.00,VWS V14.01,2013-03-15 14:39:00,
2013-03-15 10:41:00,37.2,26.2,28.40,SW,226,4.9,4.9,64,0.00,,---,0.00,VWS V14.01,2013-03-15 14:41:00,
2013-03-15 10:42:00,37.4,26.4,28.40,WSW,244,4.9,4.9,64,0.00,,---,0.00,VWS V14.01,2013-03-15 14:42:00,
2013-03-15 10:43:00,37.6,26.2,28.40,WSW,244,4.9,4.9,63,0.00,,---,0.00,VWS V14.01,2013-03-15 14:43:00,
2013-03-15 10:44:00,37.8,26.4,28.40,West,271,4.9,4.9,63,0.00,,---,0.00,VWS V14.01,2013-03-15 14:44:00,
2013-03-15 10:46:00,37.9,26.1,28.40,SSE,155,4.9,4.9,62,0.00,,---,0.00,VWS V14.01,2013-03-15 14:46:00,
2013-03-15 10:47:00,38.1,25.9,28.40,SW,235,4.9,4.9,61,0.00,,---,0.00,VWS V14.01,2013-03-15 14:47:00,
2013-03-15 10:48:00,38.1,25.9,28.40,SW,235,4.9,4.9,61,0.00,,---,0.00,VWS V14.01,2013-03-15 14:48:00,
2013-03-15 10:49:00,38.3,26.4,28.40,SW,223,4.9,4.9,62,0.00,,---,0.00,VWS V14.01,2013-03-15 14:49:00,
2013-03-15 10:51:00,38.7,26.8,28.39,SE,131,4.9,4.9,62,0.00,,---,0.00,VWS V14.01,2013-03-15 14:51:00,
2013-03-15 10:53:00,38.8,26.5,28.39,WSW,247,4.9,4.9,61,0.00,,---,0.00,VWS V14.01,2013-03-15 14:53:00,
2013-03-15 10:54:00,38.8,26.5,28.39,SSW,209,4.9,4.9,61,0.00,,---,0.00,VWS V14.01,2013-03-15 14:54:00,
2013-03-15 10:57:00,39.0,26.3,28.39,SW,232,4.9,4.9,60,0.00,,---,0.00,VWS V14.01,2013-03-15 14:57:00,
2013-03-15 10:58:00,39.2,26.5,28.39,WSW,242,4.9,4.9,60,0.00,,---,0.00,VWS V14.01,2013-03-15 14:58:00,
2013-03-15 10:59:00,39.4,26.7,28.39,SW,225,4.9,4.9,60,0.00,,---,0.00,VWS V14.01,2013-03-15 14:59:00,
2013-03-15 11:02:00,39.7,26.1,28.39,SSW,211,4.9,4.9,58,0.00,,---,0.00,VWS V14.01,2013-03-15 15:02:00,
2013-03-15 11:03:00,39.7,26.1,28.39,SW,236,4.9,4.9,58,0.00,,---,0.00,VWS V14.01,2013-03-15 15:03:00,
2013-03-15 11:04:00,39.7,25.7,28.38,WSW,241,4.9,4.9,57,0.00,,---,0.00,VWS V14.01,2013-03-15 15:04:00,
2013-03-15 11:07:00,39.7,26.1,28.38,SSW,201,6.0,6.0,58,0.00,,---,0.00,VWS V14.01,2013-03-15 15:07:00,
2013-03-15 11:08:00,39.7,25.7,28.39,SW,231,6.9,6.9,57,0.00,,---,0.00,VWS V14.01,2013-03-15 15:08:00,
2013-03-15 11:09:00,39.7,26.1,28.38,SW,223,6.9,6.9,58,0.00,,---,0.00,VWS V14.01,2013-03-15 15:09:00,
2013-03-15 11:12:00,39.7,25.7,28.39,NW,306,6.9,6.9,57,0.00,,---,0.00,VWS V14.01,2013-03-15 15:12:00,
2013-03-15 11:13:00,39.7,25.7,28.38,SSW,213,6.9,6.9,57,0.00,,---,0.00,VWS V14.01,2013-03-15 15:13:00,
2013-03-15 11:14:00,39.7,25.7,28.38,West,260,6.0,6.9,57,0.00,,---,0.00,VWS V14.01,2013-03-15 15:14:00,
2013-03-15 11:17:00,39.7,25.7,28.38,SW,236,6.0,6.9,57,0.00,,---,0.00,VWS V14.01,2013-03-15 15:17:00,
2013-03-15 11:18:00,39.7,26.1,28.38,SW,229,4.9,6.9,58,0.00,,---,0.00,VWS V14.01,2013-03-15 15:18:00,
2013-03-15 11:19:00,39.7,26.1,28.38,SW,215,4.9,6.9,58,0.00,,---,0.00,VWS V14.01,2013-03-15 15:19:00,
2013-03-15 11:23:00,39.7,25.7,28.38,WSW,254,4.9,6.9,57,0.00,,---,0.00,VWS V14.01,2013-03-15 15:23:00,
2013-03-15 11:24:00,39.6,26.1,28.38,SW,236,4.9,6.9,58,0.00,,---,0.00,VWS V14.01,2013-03-15 15:24:00,
2013-03-15 11:28:00,39.6,26.1,28.38,West,271,4.9,6.9,58,0.00,,---,0.00,VWS V14.01,2013-03-15 15:28:00,
2013-03-15 11:29:00,39.6,26.5,28.38,SW,232,4.9,6.9,59,0.00,,---,0.00,VWS V14.01,2013-03-15 15:29:00,
2013-03-15 11:30:00,39.6,25.5,29.18,WNW,292,2.0,14.0,57,0.00,,,0.00,meteohub,2013-03-15 15:30:00,
2013-03-15 11:33:00,39.4,25.5,28.38,SW,224,4.9,4.9,57,0.00,,---,0.00,VWS V14.01,2013-03-15 15:33:00,
2013-03-15 11:34:00,39.4,25.5,28.38,WSW,250,4.9,4.9,57,0.00,,---,0.00,VWS V14.01,2013-03-15 15:34:00,
2013-03-15 11:38:00,39.2,25.3,28.38,NW,313,4.9,4.9,57,0.00,,---,0.00,VWS V14.01,2013-03-15 15:38:00,
2013-03-15 11:39:00,39.2,25.3,28.38,West,271,4.9,4.9,57,0.00,,---,0.00,VWS V14.01,2013-03-15 15:39:00,
2013-03-15 11:43:00,38.8,24.9,28.38,West,275,4.9,4.9,57,0.00,,---,0.00,VWS V14.01,2013-03-15 15:43:00,
2013-03-15 11:44:00,38.8,24.9,28.38,WSW,249,4.9,4.9,57,0.00,,---,0.00,VWS V14.01,2013-03-15 15:44:00,
2013-03-15 11:48:00,38.7,25.2,28.38,SW,225,4.9,4.9,58,0.00,,---,0.00,VWS V14.01,2013-03-15 15:48:00,
2013-03-15 11:49:00,38.7,25.6,28.37,SW,225,4.9,4.9,59,0.00,,---,0.00,VWS V14.01,2013-03-15 15:49:00,
2013-03-15 11:53:00,38.7,25.6,28.37,SW,217,4.0,4.9,59,0.00,,---,0.00,VWS V14.01,2013-03-15 15:53:00,
2013-03-15 11:54:00,38.7,25.6,28.37,SW,229,4.9,4.9,59,0.00,,---,0.00,VWS V14.01,2013-03-15 15:54:00,
2013-03-15 11:58:00,38.8,25.7,28.36,SW,230,4.9,4.9,59,0.00,,---,0.00,VWS V14.01,2013-03-15 15:58:00,
2013-03-15 11:59:00,38.8,25.3,28.36,WNW,294,4.9,4.9,58,0.00,,---,0.00,VWS V14.01,2013-03-15 15:59:00,
2013-03-15 12:03:00,38.8,25.3,28.36,SSW,212,4.9,4.9,58,0.00,,---,0.00,VWS V14.01,2013-03-15 16:03:00,
2013-03-15 12:04:00,38.8,25.3,28.36,SSW,212,4.9,4.9,58,0.00,,---,0.00,VWS V14.01,2013-03-15 16:04:00,
2013-03-15 12:05:00,38.8,25.7,28.36,SSW,203,4.9,4.9,59,0.00,,---,0.00,VWS V14.01,2013-03-15 16:05:00,
2013-03-15 12:09:00,38.8,25.7,28.36,WSW,237,4.9,4.9,59,0.00,,---,0.00,VWS V14.01,2013-03-15 16:09:00,
2013-03-15 12:10:00,38.8,25.3,28.36,WSW,240,4.9,4.9,58,0.00,,---,0.00,VWS V14.01,2013-03-15 16:10:00,
2013-03-15 12:14:00,38.8,26.1,28.36,SW,236,4.9,4.9,60,0.00,,---,0.00,VWS V14.01,2013-03-15 16:14:00,
2013-03-15 12:15:00,39.0,25.9,28.36,West,281,4.9,4.9,59,0.00,,---,0.00,VWS V14.01,2013-03-15 16:15:00,
2013-03-15 12:19:00,39.0,25.9,28.36,SW,236,4.0,4.9,59,0.00,,---,0.00,VWS V14.01,2013-03-15 16:19:00,
2013-03-15 12:20:00,39.2,26.1,28.36,SW,215,4.0,4.9,59,0.00,,---,0.00,VWS V14.01,2013-03-15 16:20:00,
2013-03-15 12:23:00,39.2,25.7,29.16,SW,221,3.0,13.0,58,0.00,,,0.00,meteohub,2013-03-15 16:23:00,
2013-03-15 12:24:00,39.2,25.7,28.36,WSW,238,4.0,4.9,58,0.00,,---,0.00,VWS V14.01,2013-03-15 16:24:00,
2013-03-15 12:25:00,39.4,25.9,28.36,NE,44,4.0,4.9,58,0.00,,---,0.00,VWS V14.01,2013-03-15 16:25:00,
2013-03-15 12:29:00,39.4,26.3,28.35,WSW,246,4.9,4.9,59,0.00,,---,0.00,VWS V14.01,2013-03-15 16:29:00,
2013-03-15 12:30:00,39.4,25.9,28.35,SW,236,4.9,4.9,58,0.00,,---,0.00,VWS V14.01,2013-03-15 16:30:00,
2013-03-15 12:34:00,39.4,25.9,28.35,SW,221,4.9,4.9,58,0.00,,---,0.00,VWS V14.01,2013-03-15 16:34:00,
2013-03-15 12:35:00,39.4,25.9,28.35,SW,220,4.9,4.9,58,0.00,,---,0.00,VWS V14.01,2013-03-15 16:35:00,
2013-03-15 12:39:00,39.6,26.1,28.35,West,279,4.9,4.9,58,0.00,,---,0.00,VWS V14.01,2013-03-15 16:39:00,
2013-03-15 12:40:00,39.6,25.6,28.35,WSW,254,4.9,4.9,57,0.00,,---,0.00,VWS V14.01,2013-03-15 16:40:00,
2013-03-15 12:44:00,39.6,26.1,28.35,WNW,286,4.9,4.9,58,0.00,,---,0.00,VWS V14.01,2013-03-15 16:44:00,
2013-03-15 12:45:00,39.6,26.1,28.35,SW,227,4.9,4.9,58,0.00,,---,0.00,VWS V14.01,2013-03-15 16:45:00,
2013-03-15 12:49:00,39.7,26.6,28.35,SW,227,4.9,4.9,59,0.00,,---,0.00,VWS V14.01,2013-03-15 16:49:00,
2013-03-15 12:50:00,39.7,26.1,28.34,South,173,4.9,4.9,58,0.00,,---,0.00,VWS V14.01,2013-03-15 16:50:00,
2013-03-15 12:54:00,39.7,26.1,28.34,SSW,201,4.9,4.9,58,0.00,,---,0.00,VWS V14.01,2013-03-15 16:54:00,
2013-03-15 12:55:00,39.9,26.3,28.34,SSW,204,4.9,4.9,58,0.00,,---,0.00,VWS V14.01,2013-03-15 16:55:00,
2013-03-15 12:59:00,40.1,26.5,28.34,SW,225,6.0,6.0,58,0.00,,---,0.00,VWS V14.01,2013-03-15 16:59:00,
2013-03-15 13:00:00,40.1,26.5,28.34,SSW,210,4.9,4.9,58,0.00,,---,0.00,VWS V14.01,2013-03-15 17:00:00,
2013-03-15 13:04:00,40.5,26.5,28.33,WSW,246,6.0,6.0,57,0.00,,---,0.00,VWS V14.01,2013-03-15 17:04:00,
2013-03-15 13:05:00,40.5,26.5,28.33,WSW,246,6.0,6.0,57,0.00,,---,0.00,VWS V14.01,2013-03-15 17:05:00,
2013-03-15 13:09:00,40.8,27.2,28.33,NW,304,4.9,6.0,58,0.00,,---,0.00,VWS V14.01,2013-03-15 17:09:00,
2013-03-15 13:10:00,40.8,27.2,28.33,NW,304,4.9,6.0,58,0.00,,---,0.00,VWS V14.01,2013-03-15 17:10:00,
2013-03-15 13:11:00,40.8,26.8,28.33,WSW,242,4.9,6.0,57,0.00,,---,0.00,VWS V14.01,2013-03-15 17:11:00,
2013-03-15 13:14:00,41.2,26.7,28.33,South,169,4.9,6.0,56,0.00,,---,0.00,VWS V14.01,2013-03-15 17:14:00,
2013-03-15 13:15:00,41.2,26.7,28.33,South,169,4.9,6.0,56,0.00,,---,0.00,VWS V14.01,2013-03-15 17:15:00,
2013-03-15 13:16:00,41.2,26.7,28.33,SW,215,6.0,6.0,56,0.00,,---,0.00,VWS V14.01,2013-03-15 17:16:00,
2013-03-15 13:20:00,41.4,26.5,28.33,SW,221,6.9,6.9,55,0.00,,---,0.00,VWS V14.01,2013-03-15 17:20:00,
2013-03-15 13:21:00,41.5,27.0,28.33,SW,230,6.9,6.9,56,0.00,,---,0.00,VWS V14.01,2013-03-15 17:21:00,
2013-03-15 13:24:00,41.7,26.8,29.13,SSW,205,3.0,18.0,55,0.00,,,0.00,meteohub,2013-03-15 17:24:00,
2013-03-15 13:25:00,41.9,26.9,28.33,WSW,239,6.9,6.9,55,0.00,,---,0.00,VWS V14.01,2013-03-15 17:25:00,
2013-03-15 13:27:00,42.1,27.5,28.33,WSW,257,6.0,6.9,56,0.00,,---,0.00,VWS V14.01,2013-03-15 17:27:00,
2013-03-15 13:30:00,42.4,27.8,28.33,WSW,246,6.0,6.0,56,0.00,,---,0.00,VWS V14.01,2013-03-15 17:30:00,
2013-03-15 13:32:00,42.8,27.3,28.32,SW,225,6.0,6.0,54,0.00,,---,0.00,VWS V14.01,2013-03-15 17:32:00,
2013-03-15 13:35:00,43.3,28.7,28.32,NW,313,4.9,4.9,56,0.00,,---,0.00,VWS V14.01,2013-03-15 17:35:00,
2013-03-15 13:37:00,43.9,28.8,28.32,SSW,209,4.9,4.9,55,0.00,,---,0.00,VWS V14.01,2013-03-15 17:37:00,
2013-03-15 13:40:00,44.4,28.8,28.32,West,271,6.0,6.0,54,0.00,,---,0.00,VWS V14.01,2013-03-15 17:40:00,
2013-03-15 13:42:00,45.0,29.4,28.32,WSW,248,6.0,6.0,54,0.00,,---,0.00,VWS V14.01,2013-03-15 17:42:00,
2013-03-15 13:45:00,45.0,28.9,28.32,North,0,6.9,6.9,53,0.00,,---,0.00,VWS V14.01,2013-03-15 17:45:00,
2013-03-15 13:47:00,45.1,28.5,28.32,West,271,6.0,6.9,52,0.00,,---,0.00,VWS V14.01,2013-03-15 17:47:00,
2013-03-15 13:50:00,45.3,29.2,28.31,SSW,196,6.0,6.9,53,0.00,,---,0.00,VWS V14.01,2013-03-15 17:50:00,
2013-03-15 13:51:00,45.3,28.7,28.31,WSW,244,6.0,6.9,52,0.00,,---,0.00,VWS V14.01,2013-03-15 17:51:00,
2013-03-15 13:53:00,45.3,28.7,28.31,WSW,249,4.9,4.9,52,0.00,,---,0.00,VWS V14.01,2013-03-15 17:53:00,
2013-03-15 13:55:00,45.3,28.2,28.31,WNW,284,4.9,4.9,51,0.00,,---,0.00,VWS V14.01,2013-03-15 17:55:00,
2013-03-15 13:56:00,45.1,28.1,28.31,WSW,237,4.9,4.9,51,0.00,,---,0.00,VWS V14.01,2013-03-15 17:56:00,
2013-03-15 13:58:00,45.1,28.5,28.31,SW,231,4.9,4.9,52,0.00,,---,0.00,VWS V14.01,2013-03-15 17:58:00,
2013-03-15 14:00:00,45.1,28.5,28.31,South,190,4.9,4.9,52,0.00,,---,0.00,VWS V14.01,2013-03-15 18:00:00,
2013-03-15 14:01:00,45.1,29.0,28.30,SSW,207,4.9,4.9,53,0.00,,---,0.00,VWS V14.01,2013-03-15 18:01:00,
2013-03-15 14:03:00,45.1,29.5,28.30,SSW,206,4.9,4.9,54,0.00,,---,0.00,VWS V14.01,2013-03-15 18:03:00,
2013-03-15 14:05:00,45.1,29.0,28.30,WSW,237,4.0,4.9,53,0.00,,---,0.00,VWS V14.01,2013-03-15 18:05:00,
2013-03-15 14:06:00,45.1,29.0,28.30,WSW,237,4.0,4.9,53,0.00,,---,0.00,VWS V14.01,2013-03-15 18:06:00,
2013-03-15 14:07:00,45.1,28.5,28.30,West,270,4.9,4.9,52,0.00,,---,0.00,VWS V14.01,2013-03-15 18:07:00,
2013-03-15 14:08:00,45.1,29.0,28.30,WNW,286,4.9,4.9,53,0.00,,---,0.00,VWS V14.01,2013-03-15 18:08:00,
2013-03-15 14:10:00,45.3,29.6,28.30,SW,225,4.9,4.9,54,0.00,,---,0.00,VWS V14.01,2013-03-15 18:10:00,
2013-03-15 14:11:00,45.3,29.6,28.30,SW,225,4.9,4.9,54,0.00,,---,0.00,VWS V14.01,2013-03-15 18:11:00,
2013-03-15 14:12:00,45.3,29.2,28.30,WNW,301,4.9,4.9,53,0.00,,---,0.00,VWS V14.01,2013-03-15 18:12:00,
2013-03-15 14:13:00,45.3,29.2,28.30,SW,232,4.9,4.9,53,0.00,,---,0.00,VWS V14.01,2013-03-15 18:13:00,
2013-03-15 14:16:00,45.9,30.2,28.30,SW,219,6.0,6.0,54,0.00,,---,0.00,VWS V14.01,2013-03-15 18:16:00,
2013-03-15 14:17:00,46.0,29.8,28.29,West,277,6.0,6.0,53,0.00,,---,0.00,VWS V14.01,2013-03-15 18:17:00,
2013-03-15 14:18:00,46.0,29.8,28.30,SW,236,6.0,6.0,53,0.00,,---,0.00,VWS V14.01,2013-03-15 18:18:00,
2013-03-15 14:21:00,46.4,29.8,28.29,SW,236,6.0,6.0,52,0.00,,---,0.00,VWS V14.01,2013-03-15 18:21:00,
2013-03-15 14:22:00,46.4,30.2,28.29,NW,317,6.0,6.0,53,0.00,,---,0.00,VWS V14.01,2013-03-15 18:22:00,
2013-03-15 14:23:00,46.6,30.4,28.29,SSW,201,4.9,6.0,53,0.00,,---,0.00,VWS V14.01,2013-03-15 18:23:00,
2013-03-15 14:26:00,46.8,29.6,28.29,SW,228,4.9,6.0,51,0.00,,---,0.00,VWS V14.01,2013-03-15 18:26:00,
2013-03-15 14:27:00,46.8,29.6,28.29,WNW,295,4.9,6.0,51,0.00,,---,0.00,VWS V14.01,2013-03-15 18:27:00,
2013-03-15 14:29:00,46.6,29.5,28.29,SW,214,6.0,6.0,51,0.00,,---,0.00,VWS V14.01,2013-03-15 18:29:00,
2013-03-15 14:31:00,46.6,29.5,28.29,SW,227,6.0,6.0,51,0.00,,---,0.00,VWS V14.01,2013-03-15 18:31:00,
2013-03-15 14:32:00,46.6,29.5,28.29,WNW,296,6.0,6.0,51,0.00,,---,0.00,VWS V14.01,2013-03-15 18:32:00,
2013-03-15 14:34:00,46.4,29.3,28.28,SW,234,6.9,6.9,51,0.00,,---,0.00,VWS V14.01,2013-03-15 18:34:00,
2013-03-15 14:36:00,46.6,29.5,28.28,SSW,212,6.0,6.9,51,0.00,,---,0.00,VWS V14.01,2013-03-15 18:36:00,
2013-03-15 14:37:00,46.6,29.5,28.28,West,272,6.0,6.9,51,0.00,,---,0.00,VWS V14.01,2013-03-15 18:37:00,
2013-03-15 14:39:00,46.6,29.5,28.28,WSW,240,6.0,6.9,51,0.00,,---,0.00,VWS V14.01,2013-03-15 18:39:00,
2013-03-15 14:41:00,46.6,29.5,28.27,SW,235,6.0,6.9,51,0.00,,---,0.00,VWS V14.01,2013-03-15 18:41:00,
2013-03-15 14:42:00,46.6,29.5,28.28,SW,230,6.0,6.9,51,0.00,,---,0.00,VWS V14.01,2013-03-15 18:42:00,
2013-03-15 14:44:00,46.6,29.0,28.27,SSW,206,6.0,6.9,50,0.00,,---,0.00,VWS V14.01,2013-03-15 18:44:00,
2013-03-15 14:46:00,46.6,29.5,28.27,SW,227,6.0,6.9,51,0.00,,---,0.00,VWS V14.01,2013-03-15 18:46:00,
2013-03-15 14:47:00,46.6,29.5,28.27,WSW,245,6.0,6.9,51,0.00,,---,0.00,VWS V14.01,2013-03-15 18:47:00,
2013-03-15 14:49:00,46.8,29.6,28.27,WSW,251,6.0,6.9,51,0.00,,---,0.00,VWS V14.01,2013-03-15 18:49:00,
2013-03-15 14:51:00,46.9,29.7,28.27,West,265,6.9,6.9,51,0.00,,---,0.00,VWS V14.01,2013-03-15 18:51:00,
2013-03-15 14:52:00,46.9,29.7,28.27,SW,227,6.9,6.9,51,0.00,,---,0.00,VWS V14.01,2013-03-15 18:52:00,
2013-03-15 14:54:00,47.1,29.9,28.26,NNW,327,6.9,6.9,51,0.00,,---,0.00,VWS V14.01,2013-03-15 18:54:00,
2013-03-15 14:57:00,47.5,29.8,28.27,SSW,213,6.9,6.9,50,0.00,,---,0.00,VWS V14.01,2013-03-15 18:57:00,
2013-03-15 14:58:00,47.5,30.3,28.26,WSW,258,6.9,6.9,51,0.00,,---,0.00,VWS V14.01,2013-03-15 18:58:00,
2013-03-15 14:59:00,47.5,30.8,28.26,SSW,213,6.9,6.9,52,0.00,,---,0.00,VWS V14.01,2013-03-15 18:59:00,
2013-03-15 15:02:00,47.7,30.0,28.26,WSW,247,6.9,6.9,50,0.00,,---,0.00,VWS V14.01,2013-03-15 19:02:00,
2013-03-15 15:03:00,47.7,30.0,28.26,SE,135,6.9,6.9,50,0.00,,---,0.00,VWS V14.01,2013-03-15 19:03:00,
2013-03-15 15:05:00,47.7,30.0,28.26,SW,214,6.9,6.9,50,0.00,,---,0.00,VWS V14.01,2013-03-15 19:05:00,
2013-03-15 15:07:00,47.8,31.0,28.25,WSW,250,6.0,6.9,52,0.00,,---,0.00,VWS V14.01,2013-03-15 19:07:00,
2013-03-15 15:08:00,48.0,30.8,28.25,SW,235,6.0,6.9,51,0.00,,---,0.00,VWS V14.01,2013-03-15 19:08:00,
2013-03-15 15:10:00,48.2,30.9,28.25,SW,236,6.0,6.9,51,0.00,,---,0.00,VWS V14.01,2013-03-15 19:10:00,
2013-03-15 15:12:00,48.4,31.1,28.25,SW,222,4.9,6.9,51,0.00,,---,0.00,VWS V14.01,2013-03-15 19:12:00,
2013-03-15 15:13:00,48.6,31.3,28.25,South,182,4.9,6.9,51,0.00,,---,0.00,VWS V14.01,2013-03-15 19:13:00,
2013-03-15 15:15:00,48.6,30.8,28.25,SW,236,4.9,6.9,50,0.00,,---,0.00,VWS V14.01,2013-03-15 19:15:00,
2013-03-15 15:17:00,48.7,30.4,28.25,WSW,246,6.0,6.9,49,0.00,,---,0.00,VWS V14.01,2013-03-15 19:17:00,
2013-03-15 15:18:00,48.7,29.9,28.25,SW,226,6.0,6.9,48,0.00,,---,0.00,VWS V14.01,2013-03-15 19:18:00,
2013-03-15 15:20:00,48.6,31.3,28.25,SW,217,6.0,6.9,51,0.00,,---,0.00,VWS V14.01,2013-03-15 19:20:00,
2013-03-15 15:22:00,48.7,31.9,28.25,WSW,254,6.0,6.9,52,0.00,,---,0.00,VWS V14.01,2013-03-15 19:22:00,
2013-03-15 15:23:00,48.9,32.1,28.25,SW,219,6.0,6.9,52,0.00,,---,0.00,VWS V14.01,2013-03-15 19:23:00,
2013-03-15 15:25:00,49.3,31.5,28.25,WNW,295,6.0,6.9,50,0.00,,---,0.00,VWS V14.01,2013-03-15 19:25:00,
2013-03-15 15:27:00,49.3,30.5,28.25,WSW,242,6.0,6.9,48,0.00,,---,0.00,VWS V14.01,2013-03-15 19:27:00,
2013-03-15 15:28:00,49.3,31.0,28.25,WNW,282,6.0,6.9,49,0.00,,---,0.00,VWS V14.01,2013-03-15 19:28:00,
2013-03-15 15:30:00,49.3,31.5,28.24,WSW,238,6.0,6.9,50,0.00,,---,0.00,VWS V14.01,2013-03-15 19:30:00,
2013-03-15 15:32:00,49.5,31.1,28.24,SW,232,6.9,6.9,49,0.00,,---,0.00,VWS V14.01,2013-03-15 19:32:00,
2013-03-15 15:33:00,49.5,31.1,28.24,SSW,209,6.9,6.9,49,0.00,,---,0.00,VWS V14.01,2013-03-15 19:33:00,
2013-03-15 15:35:00,49.3,30.5,28.24,SSW,208,6.9,6.9,48,0.00,,---,0.00,VWS V14.01,2013-03-15 19:35:00,
2013-03-15 15:37:00,49.3,30.5,28.24,SW,230,6.0,6.9,48,0.00,,---,0.00,VWS V14.01,2013-03-15 19:37:00,
2013-03-15 15:38:00,49.1,30.8,28.24,WNW,288,6.0,6.9,49,0.00,,---,0.00,VWS V14.01,2013-03-15 19:38:00,
2013-03-15 15:40:00,48.9,30.6,28.24,SSE,165,6.0,6.9,49,0.00,,---,0.00,VWS V14.01,2013-03-15 19:40:00,
2013-03-15 15:42:00,48.7,30.4,28.24,SW,225,6.0,6.9,49,0.00,,---,0.00,VWS V14.01,2013-03-15 19:42:00,
2013-03-15 15:43:00,48.6,30.3,28.23,West,280,6.9,6.9,49,0.00,,---,0.00,VWS V14.01,2013-03-15 19:43:00,
2013-03-15 15:44:00,48.6,30.3,28.23,West,280,6.9,6.9,49,0.00,,---,0.00,VWS V14.01,2013-03-15 19:44:00,
2013-03-15 15:45:00,48.6,30.8,28.23,South,190,6.0,6.9,50,0.00,,---,0.00,VWS V14.01,2013-03-15 19:45:00,
2013-03-15 15:47:00,48.6,30.8,28.23,SW,222,6.0,6.9,50,0.00,,---,0.00,VWS V14.01,2013-03-15 19:47:00,
2013-03-15 15:48:00,48.4,30.1,28.23,West,281,6.0,6.9,49,0.00,,---,0.00,VWS V14.01,2013-03-15 19:48:00,
2013-03-15 15:49:00,48.4,30.1,28.23,West,281,6.0,6.9,49,0.00,,---,0.00,VWS V14.01,2013-03-15 19:49:00,
2013-03-15 15:50:00,48.4,30.6,28.23,West,269,6.0,6.9,50,0.00,,---,0.00,VWS V14.01,2013-03-15 19:50:00,
2013-03-15 15:52:00,48.4,30.1,28.23,WSW,241,6.0,6.9,49,0.00,,---,0.00,VWS V14.01,2013-03-15 19:52:00,
2013-03-15 15:54:00,48.4,30.6,28.23,SSW,201,6.0,6.9,50,0.00,,---,0.00,VWS V14.01,2013-03-15 19:54:00,
2013-03-15 15:55:00,48.4,30.1,28.23,WSW,242,6.0,6.9,49,0.00,,---,0.00,VWS V14.01,2013-03-15 19:55:00,
2013-03-15 15:57:00,48.4,31.1,28.23,SSW,204,6.0,6.9,51,0.00,,---,0.00,VWS V14.01,2013-03-15 19:57:00,
2013-03-15 15:59:00,48.6,30.8,28.22,NNW,329,6.0,6.9,50,0.00,,---,0.00,VWS V14.01,2013-03-15 19:59:00,
2013-03-15 16:00:00,48.6,30.8,28.23,SW,229,6.0,6.0,50,0.00,,---,0.00,VWS V14.01,2013-03-15 20:00:00,
2013-03-15 16:02:00,48.7,30.4,28.23,WSW,242,6.9,6.9,49,0.00,,---,0.00,VWS V14.01,2013-03-15 20:02:00,
2013-03-15 16:04:00,48.9,31.1,28.23,SW,236,6.0,6.9,50,0.00,,---,0.00,VWS V14.01,2013-03-15 20:04:00,
2013-03-15 16:05:00,49.1,30.8,28.22,WSW,244,6.0,6.9,49,0.00,,---,0.00,VWS V14.01,2013-03-15 20:05:00,
2013-03-15 16:07:00,49.3,31.0,28.22,SW,214,6.9,6.9,49,0.00,,---,0.00,VWS V14.01,2013-03-15 20:07:00,
2013-03-15 16:09:00,49.3,31.0,28.22,WSW,246,6.9,6.9,49,0.00,,---,0.00,VWS V14.01,2013-03-15 20:09:00,
2013-03-15 16:10:00,49.5,32.6,28.22,West,264,6.0,6.9,52,0.00,,---,0.00,VWS V14.01,2013-03-15 20:10:00,
2013-03-15 16:12:00,49.6,31.7,28.22,WSW,244,6.0,6.9,50,0.00,,---,0.00,VWS V14.01,2013-03-15 20:12:00,
2013-03-15 16:14:00,49.8,31.9,28.22,SSW,193,6.0,6.9,50,0.00,,---,0.00,VWS V14.01,2013-03-15 20:14:00,
2013-03-15 16:15:00,50.0,31.6,28.22,West,260,6.0,6.9,49,0.00,,---,0.00,VWS V14.01,2013-03-15 20:15:00,
2013-03-15 16:17:00,50.2,31.8,28.22,SW,232,4.9,6.9,49,0.00,,---,0.00,VWS V14.01,2013-03-15 20:17:00,
2013-03-15 16:19:00,50.2,31.8,28.22,WSW,253,4.9,6.9,49,0.00,,---,0.00,VWS V14.01,2013-03-15 20:19:00,
2013-03-15 16:20:00,50.2,31.8,28.22,SSE,148,6.0,6.9,49,0.00,,---,0.00,VWS V14.01,2013-03-15 20:20:00,
2013-03-15 16:22:00,50.4,32.0,28.22,SW,229,6.0,6.9,49,0.00,,---,0.00,VWS V14.01,2013-03-15 20:22:00,
2013-03-15 16:24:00,50.4,32.5,28.22,SW,223,6.0,6.9,50,0.00,,---,0.00,VWS V14.01,2013-03-15 20:24:00,
2013-03-15 16:25:00,50.4,32.5,28.22,West,260,4.9,6.9,50,0.00,,---,0.00,VWS V14.01,2013-03-15 20:25:00,
2013-03-15 16:28:00,50.4,32.0,28.22,West,259,4.9,6.9,49,0.00,,---,0.00,VWS V14.01,2013-03-15 20:28:00,
2013-03-15 16:29:00,50.4,32.0,28.22,SW,229,4.9,6.9,49,0.00,,---,0.00,VWS V14.01,2013-03-15 20:29:00,
2013-03-15 16:30:00,50.4,32.0,28.22,SW,235,6.0,6.0,49,0.00,,---,0.00,VWS V14.01,2013-03-15 20:30:00,
2013-03-15 16:33:00,50.2,31.3,28.22,SSW,209,6.0,6.0,48,0.00,,---,0.00,VWS V14.01,2013-03-15 20:33:00,
2013-03-15 16:34:00,50.2,32.3,28.22,WSW,246,6.0,6.0,50,0.00,,---,0.00,VWS V14.01,2013-03-15 20:34:00,
2013-03-15 16:35:00,50.2,31.8,28.22,SW,229,6.0,6.0,49,0.00,,---,0.00,VWS V14.01,2013-03-15 20:35:00,
2013-03-15 16:36:00,50.2,31.3,28.22,SW,234,6.9,6.9,48,0.00,,---,0.00,VWS V14.01,2013-03-15 20:36:00,
2013-03-15 16:38:00,50.2,31.8,28.21,SW,231,6.0,6.9,49,0.00,,---,0.00,VWS V14.01,2013-03-15 20:38:00,
2013-03-15 16:39:00,50.4,32.0,28.22,WSW,240,6.0,6.9,49,0.00,,---,0.00,VWS V14.01,2013-03-15 20:39:00,
2013-03-15 16:40:00,50.4,32.0,28.22,SW,235,6.0,6.9,49,0.00,,---,0.00,VWS V14.01,2013-03-15 20:40:00,
2013-03-15 16:41:00,50.4,31.5,28.21,WSW,254,6.0,6.9,48,0.00,,---,0.00,VWS V14.01,2013-03-15 20:41:00,
2013-03-15 16:43:00,50.2,31.3,28.21,WSW,241,6.0,6.9,48,0.00,,---,0.00,VWS V14.01,2013-03-15 20:43:00,
2013-03-15 16:44:00,50.2,31.3,28.21,SW,230,6.0,6.9,48,0.00,,---,0.00,VWS V14.01,2013-03-15 20:44:00,
2013-03-15 16:45:00,50.2,31.3,28.21,SW,227,6.0,6.9,48,0.00,,---,0.00,VWS V14.01,2013-03-15 20:45:00,
2013-03-15 16:46:00,50.0,32.1,28.21,SW,227,4.9,6.9,50,0.00,,---,0.00,VWS V14.01,2013-03-15 20:46:00,
2013-03-15 16:48:00,50.0,31.6,28.21,WNW,292,4.9,6.9,49,0.00,,---,0.00,VWS V14.01,2013-03-15 20:48:00,
2013-03-15 16:49:00,49.8,31.9,28.21,SW,235,4.9,6.9,50,0.00,,---,0.00,VWS V14.01,2013-03-15 20:49:00,
2013-03-15 16:50:00,49.8,31.4,28.21,West,265,4.9,6.9,49,0.00,,---,0.00,VWS V14.01,2013-03-15 20:50:00,
2013-03-15 16:52:00,49.8,31.9,28.21,WNW,300,4.9,6.9,50,0.00,,---,0.00,VWS V14.01,2013-03-15 20:52:00,
2013-03-15 16:53:00,49.8,31.4,28.21,SW,236,4.9,6.9,49,0.00,,---,0.00,VWS V14.01,2013-03-15 20:53:00,
2013-03-15 16:54:00,49.6,31.2,28.21,WNW,294,4.9,6.9,49,0.00,,---,0.00,VWS V14.01,2013-03-15 20:54:00,
2013-03-15 16:55:00,49.6,31.2,28.21,NNW,348,4.9,6.9,49,0.00,,---,0.00,VWS V14.01,2013-03-15 20:55:00,
2013-03-15 16:57:00,49.6,31.2,28.21,SW,218,6.0,6.9,49,0.00,,---,0.00,VWS V14.01,2013-03-15 20:57:00,
2013-03-15 16:58:00,49.5,31.1,28.21,WNW,300,6.0,6.9,49,0.00,,---,0.00,VWS V14.01,2013-03-15 20:58:00,
2013-03-15 16:59:00,49.5,31.1,28.21,WNW,300,6.0,6.9,49,0.00,,---,0.00,VWS V14.01,2013-03-15 20:59:00,
2013-03-15 17:00:00,49.5,31.1,28.21,South,182,6.0,6.9,49,0.00,,---,0.00,VWS V14.01,2013-03-15 21:00:00,
2013-03-15 17:02:00,49.5,31.1,28.21,SW,230,6.0,6.0,49,0.00,,---,0.00,VWS V14.01,2013-03-15 21:02:00,
2013-03-15 17:04:00,49.5,32.1,28.20,WSW,253,6.0,6.0,51,0.00,,---,0.00,VWS V14.01,2013-03-15 21:04:00,
2013-03-15 17:05:00,49.6,31.2,28.21,SW,215,6.0,6.0,49,0.00,,---,0.00,VWS V14.01,2013-03-15 21:05:00,
2013-03-15 17:07:00,49.8,31.4,28.20,SSW,209,6.0,6.0,49,0.00,,---,0.00,VWS V14.01,2013-03-15 21:07:00,
2013-03-15 17:09:00,50.0,32.1,28.20,SW,232,6.0,6.0,50,0.00,,---,0.00,VWS V14.01,2013-03-15 21:09:00,
2013-03-15 17:10:00,50.2,32.8,28.20,SW,235,6.0,6.0,51,0.00,,---,0.00,VWS V14.01,2013-03-15 21:10:00,
2013-03-15 17:12:00,50.4,32.5,28.20,SW,229,6.0,6.0,50,0.00,,---,0.00,VWS V14.01,2013-03-15 21:12:00,
2013-03-15 17:14:00,50.5,32.6,28.20,SW,221,6.9,6.9,50,0.00,,---,0.00,VWS V14.01,2013-03-15 21:14:00,
2013-03-15 17:15:00,50.5,32.6,28.21,WNW,284,6.0,6.9,50,0.00,,---,0.00,VWS V14.01,2013-03-15 21:15:00,
2013-03-15 17:17:00,50.7,32.8,28.21,WSW,244,6.0,6.9,50,0.00,,---,0.00,VWS V14.01,2013-03-15 21:17:00,
2013-03-15 17:19:00,50.9,32.4,28.20,WNW,298,6.0,6.9,49,0.00,,---,0.00,VWS V14.01,2013-03-15 21:19:00,
2013-03-15 17:20:00,50.9,32.4,28.20,WNW,285,6.0,6.9,49,0.00,,---,0.00,VWS V14.01,2013-03-15 21:20:00,
2013-03-15 17:23:00,50.7,32.2,28.20,SW,216,6.0,6.9,49,0.00,,---,0.00,VWS V14.01,2013-03-15 21:23:00,
2013-03-15 17:24:00,50.7,32.2,28.20,SSW,203,4.9,6.9,49,0.00,,---,0.00,VWS V14.01,2013-03-15 21:24:00,
2013-03-15 17:25:00,50.7,32.2,28.20,SSW,203,4.9,6.9,49,0.00,,---,0.00,VWS V14.01,2013-03-15 21:25:00,
2013-03-15 17:28:00,50.5,32.1,28.20,NW,308,4.9,6.9,49,0.00,,---,0.00,VWS V14.01,2013-03-15 21:28:00,
2013-03-15 17:29:00,50.4,32.5,28.20,West,273,4.9,6.9,50,0.00,,---,0.00,VWS V14.01,2013-03-15 21:29:00,
2013-03-15 17:30:00,50.4,32.5,28.20,West,273,4.9,4.9,50,0.00,,---,0.00,VWS V14.01,2013-03-15 21:30:00,
2013-03-15 17:33:00,50.0,32.6,28.20,West,278,4.9,4.9,51,0.00,,---,0.00,VWS V14.01,2013-03-15 21:33:00,
2013-03-15 17:34:00,49.8,32.4,28.20,SW,231,4.0,4.9,51,0.00,,---,0.00,VWS V14.01,2013-03-15 21:34:00,
2013-03-15 17:35:00,49.8,32.4,28.20,SW,231,4.0,4.9,51,0.00,,---,0.00,VWS V14.01,2013-03-15 21:35:00,
2013-03-15 17:38:00,49.8,32.4,28.20,SW,232,4.0,4.9,51,0.00,,---,0.00,VWS V14.01,2013-03-15 21:38:00,
2013-03-15 17:39:00,49.6,32.7,28.20,West,265,4.0,4.9,52,0.00,,---,0.00,VWS V14.01,2013-03-15 21:39:00,
2013-03-15 17:40:00,49.6,32.7,28.20,West,265,4.0,4.9,52,0.00,,---,0.00,VWS V14.01,2013-03-15 21:40:00,
2013-03-15 17:43:00,49.5,32.1,28.20,WSW,250,4.0,4.9,51,0.00,,---,0.00,VWS V14.01,2013-03-15 21:43:00,
2013-03-15 17:44:00,49.5,32.1,28.20,WNW,283,4.9,4.9,51,0.00,,---,0.00,VWS V14.01,2013-03-15 21:44:00,
2013-03-15 17:45:00,49.5,32.1,28.20,WNW,283,4.9,4.9,51,0.00,,---,0.00,VWS V14.01,2013-03-15 21:45:00,
2013-03-15 17:48:00,49.3,32.0,28.20,SW,218,4.9,4.9,51,0.00,,---,0.00,VWS V14.01,2013-03-15 21:48:00,
2013-03-15 17:50:00,49.3,32.9,28.20,NW,314,4.9,4.9,53,0.00,,---,0.00,VWS V14.01,2013-03-15 21:50:00,
2013-03-15 17:51:00,49.3,32.9,28.20,SSW,208,4.9,4.9,53,0.00,,---,0.00,VWS V14.01,2013-03-15 21:51:00,
2013-03-15 17:53:00,49.3,32.4,28.20,SW,233,4.9,4.9,52,0.00,,---,0.00,VWS V14.01,2013-03-15 21:53:00,
2013-03-15 17:55:00,49.3,32.4,28.20,WSW,257,4.0,4.9,52,0.00,,---,0.00,VWS V14.01,2013-03-15 21:55:00,
2013-03-15 17:56:00,49.3,32.9,28.20,WSW,244,4.0,4.9,53,0.00,,---,0.00,VWS V14.01,2013-03-15 21:56:00,
2013-03-15 17:58:00,49.3,32.9,28.20,WSW,240,2.9,4.9,53,0.00,,---,0.00,VWS V14.01,2013-03-15 21:58:00,
2013-03-15 18:00:00,49.3,32.9,28.20,West,273,2.9,2.9,53,0.00,,---,0.00,VWS V14.01,2013-03-15 22:00:00,
2013-03-15 18:01:00,49.3,32.9,28.20,SW,234,2.9,2.9,53,0.00,,---,0.00,VWS V14.01,2013-03-15 22:01:00,
2013-03-15 18:02:00,49.3,33.4,28.20,SW,234,2.9,2.9,54,0.00,,---,0.00,VWS V14.01,2013-03-15 22:02:00,
2013-03-15 18:03:00,49.3,33.4,28.20,SW,234,2.9,2.9,54,0.00,,---,0.00,VWS V14.01,2013-03-15 22:03:00,
2013-03-15 18:05:00,49.3,32.9,28.20,WSW,252,2.9,2.9,53,0.00,,---,0.00,VWS V14.01,2013-03-15 22:05:00,
2013-03-15 18:06:00,49.3,33.4,28.20,SSW,198,2.9,2.9,54,0.00,,---,0.00,VWS V14.01,2013-03-15 22:06:00,
2013-03-15 18:07:00,49.3,33.4,28.20,WSW,242,2.9,2.9,54,0.00,,---,0.00,VWS V14.01,2013-03-15 22:07:00,
2013-03-15 18:08:00,49.5,33.6,28.20,West,263,2.9,2.9,54,0.00,,---,0.00,VWS V14.01,2013-03-15 22:08:00,
2013-03-15 18:10:00,49.5,33.6,28.20,SW,236,2.9,2.9,54,0.00,,---,0.00,VWS V14.01,2013-03-15 22:10:00,
2013-03-15 18:11:00,49.5,33.6,28.20,SSW,213,2.9,2.9,54,0.00,,---,0.00,VWS V14.01,2013-03-15 22:11:00,
2013-03-15 18:12:00,49.5,33.6,28.20,SSW,213,2.9,2.9,54,0.00,,---,0.00,VWS V14.01,2013-03-15 22:12:00,
2013-03-15 18:13:00,49.5,34.0,28.20,WSW,243,2.9,2.9,55,0.00,,---,0.00,VWS V14.01,2013-03-15 22:13:00,
2013-03-15 18:15:00,49.5,33.6,28.20,WSW,242,2.9,2.9,54,0.00,,---,0.00,VWS V14.01,2013-03-15 22:15:00,
2013-03-15 18:17:00,49.5,33.6,28.20,WNW,294,2.9,2.9,54,0.00,,---,0.00,VWS V14.01,2013-03-15 22:17:00,
2013-03-15 18:18:00,49.5,33.6,28.20,WSW,240,2.9,2.9,54,0.00,,---,0.00,VWS V14.01,2013-03-15 22:18:00,
2013-03-15 18:20:00,49.5,34.0,28.20,SW,228,2.0,2.9,55,0.00,,---,0.00,VWS V14.01,2013-03-15 22:20:00,
2013-03-15 18:22:00,49.5,33.6,28.20,SW,232,2.0,2.9,54,0.00,,---,0.00,VWS V14.01,2013-03-15 22:22:00,
2013-03-15 18:23:00,49.5,33.6,28.20,SW,232,2.0,2.9,54,0.00,,---,0.00,VWS V14.01,2013-03-15 22:23:00,
2013-03-15 18:25:00,49.5,34.0,28.20,SW,232,2.0,2.9,55,0.00,,---,0.00,VWS V14.01,2013-03-15 22:25:00,
2013-03-15 18:27:00,49.5,34.0,28.20,West,259,2.0,2.9,55,0.00,,---,0.00,VWS V14.01,2013-03-15 22:27:00,
2013-03-15 18:28:00,49.5,34.0,28.20,SW,231,0.9,2.9,55,0.00,,---,0.00,VWS V14.01,2013-03-15 22:28:00,
2013-03-15 18:30:00,49.3,33.8,28.20,West,271,2.0,2.0,55,0.00,,---,0.00,VWS V14.01,2013-03-15 22:30:00,
2013-03-15 18:32:00,49.3,33.8,28.20,West,271,2.0,2.0,55,0.00,,---,0.00,VWS V14.01,2013-03-15 22:32:00,
2013-03-15 18:33:00,49.3,33.8,28.20,NNW,344,0.9,2.0,55,0.00,,---,0.00,VWS V14.01,2013-03-15 22:33:00,
2013-03-15 18:35:00,49.3,34.3,28.20,SW,224,2.0,2.0,56,0.00,,---,0.00,VWS V14.01,2013-03-15 22:35:00,
2013-03-15 18:37:00,49.1,34.1,28.20,SW,224,2.0,2.0,56,0.00,,---,0.00,VWS V14.01,2013-03-15 22:37:00,
2013-03-15 18:38:00,49.1,34.1,28.20,SW,224,0.9,2.0,56,0.00,,---,0.00,VWS V14.01,2013-03-15 22:38:00,
2013-03-15 18:40:00,48.9,33.9,28.20,SW,224,0.9,2.0,56,0.00,,---,0.00,VWS V14.01,2013-03-15 22:40:00,
2013-03-15 18:42:00,48.9,33.9,28.20,SW,223,0.9,0.9,56,0.00,,---,0.00,VWS V14.01,2013-03-15 22:42:00,
2013-03-15 18:43:00,48.7,33.7,28.20,SW,222,2.0,2.0,56,0.00,,---,0.00,VWS V14.01,2013-03-15 22:43:00,
2013-03-15 18:45:00,48.7,34.2,28.20,West,263,2.0,2.0,57,0.00,,---,0.00,VWS V14.01,2013-03-15 22:45:00,
2013-03-15 18:47:00,48.7,34.2,28.20,West,263,2.0,2.0,57,0.00,,---,0.00,VWS V14.01,2013-03-15 22:47:00,
2013-03-15 18:48:00,48.7,34.2,28.20,SSW,212,2.0,2.0,57,0.00,,---,0.00,VWS V14.01,2013-03-15 22:48:00,
2013-03-15 18:51:00,48.6,34.1,28.20,SW,217,2.0,2.0,57,0.00,,---,0.00,VWS V14.01,2013-03-15 22:51:00,
2013-03-15 18:52:00,48.6,34.1,28.20,SW,217,2.0,2.0,57,0.00,,---,0.00,VWS V14.01,2013-03-15 22:52:00,
2013-03-15 18:54:00,48.4,33.9,28.20,WSW,241,2.0,2.0,57,0.00,,---,0.00,VWS V14.01,2013-03-15 22:54:00,
2013-03-15 18:56:00,48.4,34.3,28.20,West,279,2.0,2.0,58,0.00,,---,0.00,VWS V14.01,2013-03-15 22:56:00,
2013-03-15 18:57:00,48.2,34.1,28.21,WSW,256,2.0,2.0,58,0.00,,---,0.00,VWS V14.01,2013-03-15 22:57:00,
2013-03-15 18:58:00,48.2,34.1,28.21,WSW,256,2.0,2.0,58,0.00,,---,0.00,VWS V14.01,2013-03-15 22:58:00,
2013-03-15 18:59:00,48.0,33.9,28.20,SW,224,2.0,2.0,58,0.00,,---,0.00,VWS V14.01,2013-03-15 22:59:00,
2013-03-15 19:01:00,48.0,34.4,28.20,WSW,250,2.0,2.0,59,0.00,,---,0.00,VWS V14.01,2013-03-15 23:01:00,
2013-03-15 19:02:00,47.8,34.2,28.20,West,264,2.0,2.0,59,0.00,,---,0.00,VWS V14.01,2013-03-15 23:02:00,
2013-03-15 19:03:00,47.8,34.2,28.20,West,264,2.0,2.0,59,0.00,,---,0.00,VWS V14.01,2013-03-15 23:03:00,
2013-03-15 19:04:00,47.8,34.2,28.21,SW,226,2.0,2.0,59,0.00,,---,0.00,VWS V14.01,2013-03-15 23:04:00,
2013-03-15 19:06:00,47.7,34.5,28.21,WSW,239,2.0,2.0,60,0.00,,---,0.00,VWS V14.01,2013-03-15 23:06:00,
2013-03-15 19:07:00,47.7,34.5,28.21,WNW,283,2.9,2.9,60,0.00,,---,0.00,VWS V14.01,2013-03-15 23:07:00,
2013-03-15 19:08:00,47.7,34.5,28.21,WNW,283,2.9,2.9,60,0.00,,---,0.00,VWS V14.01,2013-03-15 23:08:00,
2013-03-15 19:09:00,47.7,34.5,28.21,WNW,282,2.0,2.9,60,0.00,,---,0.00,VWS V14.01,2013-03-15 23:09:00,
2013-03-15 19:11:00,47.5,34.3,28.21,WSW,253,2.0,2.9,60,0.00,,---,0.00,VWS V14.01,2013-03-15 23:11:00,
2013-03-15 19:12:00,47.5,34.7,28.21,South,182,2.0,2.9,61,0.00,,---,0.00,VWS V14.01,2013-03-15 23:12:00,
2013-03-15 19:13:00,47.5,34.7,28.21,South,182,2.0,2.9,61,0.00,,---,0.00,VWS V14.01,2013-03-15 23:13:00,
2013-03-15 19:14:00,47.3,34.5,28.21,South,182,2.0,2.9,61,0.00,,---,0.00,VWS V14.01,2013-03-15 23:14:00,
2013-03-15 19:16:00,47.1,34.4,28.21,NW,307,0.9,2.9,61,0.00,,---,0.00,VWS V14.01,2013-03-15 23:16:00,
2013-03-15 19:18:00,47.1,34.4,28.21,NW,307,0.9,2.9,61,0.00,,---,0.00,VWS V14.01,2013-03-15 23:18:00,
2013-03-15 19:19:00,47.1,34.4,28.21,NW,307,0.9,2.9,61,0.00,,---,0.00,VWS V14.01,2013-03-15 23:19:00,
2013-03-15 19:21:00,46.9,34.6,28.21,WSW,250,0.9,2.9,62,0.00,,---,0.00,VWS V14.01,2013-03-15 23:21:00,
2013-03-15 19:23:00,46.9,34.6,28.21,WSW,250,0.9,2.9,62,0.00,,---,0.00,VWS V14.01,2013-03-15 23:23:00,
2013-03-15 19:24:00,46.8,34.5,28.21,SW,214,0.9,2.9,62,0.00,,---,0.00,VWS V14.01,2013-03-15 23:24:00,
2013-03-15 19:27:00,46.6,34.3,28.22,West,280,0.9,2.9,62,0.00,,---,0.00,VWS V14.01,2013-03-15 23:27:00,
2013-03-15 19:28:00,46.6,34.3,28.22,WSW,246,0.9,2.9,62,0.00,,---,0.00,VWS V14.01,2013-03-15 23:28:00,
2013-03-15 19:29:00,46.6,34.7,28.22,West,265,0.9,2.9,63,0.00,,---,0.00,VWS V14.01,2013-03-15 23:29:00,
2013-03-15 19:32:00,46.4,34.5,28.22,SW,232,2.0,2.0,63,0.00,,---,0.00,VWS V14.01,2013-03-15 23:32:00,
2013-03-15 19:33:00,46.2,34.3,28.22,SW,230,2.0,2.0,63,0.00,,---,0.00,VWS V14.01,2013-03-15 23:33:00,
2013-03-15 19:34:00,46.2,34.3,28.22,SSE,159,2.0,2.0,63,0.00,,---,0.00,VWS V14.01,2013-03-15 23:34:00,
2013-03-15 19:37:00,46.0,34.5,28.22,WSW,248,2.0,2.9,64,0.00,,---,0.00,VWS V14.01,2013-03-15 23:37:00,
2013-03-15 19:38:00,46.0,34.5,28.22,SSW,205,2.9,2.9,64,0.00,,---,0.00,VWS V14.01,2013-03-15 23:38:00,
2013-03-15 19:39:00,46.0,34.5,28.22,SW,221,2.9,2.9,64,0.00,,---,0.00,VWS V14.01,2013-03-15 23:39:00,
2013-03-15 19:43:00,45.9,34.4,28.22,WSW,244,2.0,2.9,64,0.00,,---,0.00,VWS V14.01,2013-03-15 23:43:00,
2013-03-15 19:44:00,45.9,34.4,28.22,SW,226,2.0,2.9,64,0.00,,---,0.00,VWS V14.01,2013-03-15 23:44:00,
2013-03-15 19:48:00,45.7,34.2,28.22,WSW,258,2.0,2.9,64,0.00,,---,0.00,VWS V14.01,2013-03-15 23:48:00,
2013-03-15 19:49:00,45.7,34.2,28.22,WSW,258,0.9,2.9,64,0.00,,---,0.00,VWS V14.01,2013-03-15 23:49:00,
2013-03-15 19:53:00,45.5,34.4,28.23,SW,215,0.9,2.9,65,0.00,,---,0.00,VWS V14.01,2013-03-15 23:53:00,
2013-03-15 19:54:00,45.3,34.2,28.23,SW,215,0.9,2.9,65,0.00,,---,0.00,VWS V14.01,2013-03-15 23:54:00,
2013-03-15 19:58:00,45.1,34.0,28.23,West,278,0.9,2.9,65,0.00,,---,0.00,VWS V14.01,2013-03-15 23:58:00,
2013-03-15 19:59:00,45.1,34.0,28.23,NNW,348,0.9,2.9,65,0.00,,---,0.00,VWS V14.01,2013-03-15 23:59:00,
2013-03-15 20:03:00,45.0,34.0,28.23,North,355,0.9,0.9,65,0.00,,---,0.00,VWS V14.01,2013-03-16 00:03:00,
2013-03-15 20:04:00,45.0,34.3,28.23,South,187,0.9,0.9,66,0.00,,---,0.00,VWS V14.01,2013-03-16 00:04:00,
2013-03-15 20:08:00,45.0,34.3,28.23,South,187,0.0,0.9,66,0.00,,---,0.00,VWS V14.01,2013-03-16 00:08:00,
2013-03-15 20:09:00,45.0,34.3,28.23,South,187,0.0,0.9,66,0.00,,---,0.00,VWS V14.01,2013-03-16 00:09:00,
2013-03-15 20:13:00,45.0,34.3,28.23,WNW,282,0.0,0.9,66,0.00,,---,0.00,VWS V14.01,2013-03-16 00:13:00,
2013-03-15 20:15:00,44.8,34.2,28.23,WNW,282,0.0,0.9,66,0.00,,---,0.00,VWS V14.01,2013-03-16 00:15:00,
2013-03-15 20:18:00,44.8,34.2,28.24,WNW,282,0.0,0.9,66,0.00,,---,0.00,VWS V14.01,2013-03-16 00:18:00,
2013-03-15 20:19:00,44.8,34.2,28.24,WNW,298,0.0,0.9,66,0.00,,---,0.00,VWS V14.01,2013-03-16 00:19:00,
2013-03-15 20:20:00,44.8,34.2,28.24,NW,319,0.9,0.9,66,0.00,,---,0.00,VWS V14.01,2013-03-16 00:20:00,
2013-03-15 20:23:00,45.0,34.3,28.24,NW,315,0.9,0.9,66,0.00,,---,0.00,VWS V14.01,2013-03-16 00:23:00,
2013-03-15 20:24:00,45.0,34.0,28.24,NW,315,0.9,0.9,65,0.00,,---,0.00,VWS V14.01,2013-03-16 00:24:00,
2013-03-15 20:25:00,45.0,34.0,28.24,NW,315,0.9,0.9,65,0.00,,---,0.00,VWS V14.01,2013-03-16 00:25:00,
2013-03-15 20:28:00,45.0,34.0,28.24,NW,315,2.0,2.0,65,0.00,,---,0.00,VWS V14.01,2013-03-16 00:28:00,
2013-03-15 20:29:00,45.0,34.0,28.24,NW,315,2.0,2.0,65,0.00,,---,0.00,VWS V14.01,2013-03-16 00:29:00,
2013-03-15 20:30:00,45.0,34.0,28.24,NW,325,0.9,0.9,65,0.00,,---,0.00,VWS V14.01,2013-03-16 00:30:00,
2013-03-15 20:33:00,45.1,34.0,28.24,NW,311,0.9,0.9,65,0.00,,---,0.00,VWS V14.01,2013-03-16 00:33:00,
2013-03-15 20:34:00,45.1,34.0,28.24,NW,311,0.9,0.9,65,0.00,,---,0.00,VWS V14.01,2013-03-16 00:34:00,
2013-03-15 20:35:00,45.1,34.0,28.24,WNW,291,0.9,0.9,65,0.00,,---,0.00,VWS V14.01,2013-03-16 00:35:00,
2013-03-15 20:38:00,45.3,34.2,28.24,West,259,0.9,0.9,65,0.00,,---,0.00,VWS V14.01,2013-03-16 00:38:00,
2013-03-15 20:39:00,45.3,34.2,28.24,West,259,0.9,0.9,65,0.00,,---,0.00,VWS V14.01,2013-03-16 00:39:00,
2013-03-15 20:40:00,45.3,34.2,28.24,WNW,298,0.9,0.9,65,0.00,,---,0.00,VWS V14.01,2013-03-16 00:40:00,
2013-03-15 20:43:00,45.3,34.2,28.24,WNW,298,0.9,0.9,65,0.00,,---,0.00,VWS V14.01,2013-03-16 00:43:00,
2013-03-15 20:44:00,45.3,34.2,28.24,WNW,298,0.9,0.9,65,0.00,,---,0.00,VWS V14.01,2013-03-16 00:44:00,
2013-03-15 20:45:00,45.3,34.2,28.24,WNW,298,0.9,0.9,65,0.00,,---,0.00,VWS V14.01,2013-03-16 00:45:00,
2013-03-15 20:48:00,45.3,33.9,28.24,WNW,298,0.0,0.9,64,0.00,,---,0.00,VWS V14.01,2013-03-16 00:48:00,
2013-03-15 20:49:00,45.3,33.9,28.24,WNW,298,0.0,0.9,64,0.00,,---,0.00,VWS V14.01,2013-03-16 00:49:00,
2013-03-15 20:50:00,45.3,33.9,28.24,WNW,298,0.0,0.9,64,0.00,,---,0.00,VWS V14.01,2013-03-16 00:50:00,
2013-03-15 20:53:00,45.3,33.9,28.24,WNW,290,0.0,0.9,64,0.00,,---,0.00,VWS V14.01,2013-03-16 00:53:00,
2013-03-15 20:54:00,45.3,33.9,28.24,WNW,290,0.0,0.9,64,0.00,,---,0.00,VWS V14.01,2013-03-16 00:54:00,
2013-03-15 20:55:00,45.1,33.7,28.24,WNW,290,0.0,0.9,64,0.00,,---,0.00,VWS V14.01,2013-03-16 00:55:00,
2013-03-15 20:59:00,45.1,34.0,28.24,WNW,291,0.0,0.9,65,0.00,,---,0.00,VWS V14.01,2013-03-16 00:59:00,
2013-03-15 21:00:00,45.1,34.0,28.24,WNW,291,0.0,0.0,65,0.00,,---,0.00,VWS V14.01,2013-03-16 01:00:00,
2013-03-15 21:04:00,45.0,33.6,28.24,West,261,0.0,0.0,64,0.00,,---,0.00,VWS V14.01,2013-03-16 01:04:00,
2013-03-15 21:05:00,45.0,33.6,28.24,West,261,0.0,0.0,64,0.00,,---,0.00,VWS V14.01,2013-03-16 01:05:00,
2013-03-15 21:09:00,45.0,34.0,28.24,SW,217,0.9,0.9,65,0.00,,---,0.00,VWS V14.01,2013-03-16 01:09:00,
2013-03-15 21:10:00,45.0,34.0,28.24,SW,217,0.9,0.9,65,0.00,,---,0.00,VWS V14.01,2013-03-16 01:10:00,
2013-03-15 21:14:00,44.8,33.8,28.24,NE,45,0.9,0.9,65,0.00,,---,0.00,VWS V14.01,2013-03-16 01:14:00,
2013-03-15 21:15:00,44.8,33.8,28.24,NE,45,0.0,0.9,65,0.00,,---,0.00,VWS V14.01,2013-03-16 01:15:00,
2013-03-15 21:19:00,44.6,33.6,28.24,SW,218,0.9,0.9,65,0.00,,---,0.00,VWS V14.01,2013-03-16 01:19:00,
2013-03-15 21:20:00,44.6,33.6,28.24,SW,218,0.9,0.9,65,0.00,,---,0.00,VWS V14.01,2013-03-16 01:20:00,
2013-03-15 21:24:00,44.6,33.6,28.24,WNW,295,0.9,0.9,65,0.00,,---,0.00,VWS V14.01,2013-03-16 01:24:00,
2013-03-15 21:25:00,44.4,33.4,28.25,North,355,0.9,0.9,65,0.00,,---,0.00,VWS V14.01,2013-03-16 01:25:00,
2013-03-15 21:29:00,44.6,33.6,28.25,NNW,338,0.9,2.0,65,0.00,,---,0.00,VWS V14.01,2013-03-16 01:29:00,
2013-03-15 21:30:00,44.6,33.6,28.25,NE,45,2.0,2.0,65,0.00,,---,0.00,VWS V14.01,2013-03-16 01:30:00,
2013-03-15 21:34:00,44.8,33.4,28.25,North,355,2.0,2.0,64,0.00,,---,0.00,VWS V14.01,2013-03-16 01:34:00,
2013-03-15 21:35:00,44.6,33.2,28.25,WNW,291,2.0,2.0,64,0.00,,---,0.00,VWS V14.01,2013-03-16 01:35:00,
2013-03-15 21:39:00,44.8,33.4,28.25,SW,217,0.9,2.0,64,0.00,,---,0.00,VWS V14.01,2013-03-16 01:39:00,
2013-03-15 21:40:00,44.8,33.4,28.24,NE,44,0.9,2.0,64,0.00,,---,0.00,VWS V14.01,2013-03-16 01:40:00,
2013-03-15 21:41:00,44.8,33.4,28.25,North,355,2.0,2.0,64,0.00,,---,0.00,VWS V14.01,2013-03-16 01:41:00,
2013-03-15 21:44:00,44.8,33.4,28.24,NNE,12,2.0,2.0,64,0.00,,---,0.00,VWS V14.01,2013-03-16 01:44:00,
2013-03-15 21:45:00,44.8,33.4,28.24,NNW,327,2.0,2.0,64,0.00,,---,0.00,VWS V14.01,2013-03-16 01:45:00,
2013-03-15 21:46:00,44.8,33.4,28.24,NNW,327,2.0,2.0,64,0.00,,---,0.00,VWS V14.01,2013-03-16 01:46:00,
2013-03-15 21:49:00,44.8,33.4,28.24,North,9,0.9,2.0,64,0.00,,---,0.00,VWS V14.01,2013-03-16 01:49:00,
2013-03-15 21:50:00,44.8,33.4,28.25,WNW,292,0.9,2.0,64,0.00,,---,0.00,VWS V14.01,2013-03-16 01:50:00,
2013-03-15 21:51:00,44.8,33.4,28.25,WNW,292,0.9,2.0,64,0.00,,---,0.00,VWS V14.01,2013-03-16 01:51:00,
2013-03-15 21:54:00,44.8,33.4,28.25,West,259,0.9,2.0,64,0.00,,---,0.00,VWS V14.01,2013-03-16 01:54:00,
2013-03-15 21:56:00,44.6,33.2,28.25,SSW,213,2.0,2.0,64,0.00,,---,0.00,VWS V14.01,2013-03-16 01:56:00,
2013-03-15 21:59:00,44.6,33.2,28.25,West,279,0.9,2.0,64,0.00,,---,0.00,VWS V14.01,2013-03-16 01:59:00,
2013-03-15 22:01:00,44.6,33.2,28.25,West,279,0.9,0.9,64,0.00,,---,0.00,VWS V14.01,2013-03-16 02:01:00,
2013-03-15 22:04:00,44.4,33.0,28.25,NNW,329,0.9,0.9,64,0.00,,---,0.00,VWS V14.01,2013-03-16 02:04:00,
2013-03-15 22:06:00,44.4,33.0,28.25,WNW,291,0.0,0.9,64,0.00,,---,0.00,VWS V14.01,2013-03-16 02:06:00,
2013-03-15 22:07:00,44.4,33.0,28.25,WNW,291,0.0,0.9,64,0.00,,---,0.00,VWS V14.01,2013-03-16 02:07:00,
2013-03-15 22:09:00,44.4,33.0,28.25,WNW,291,0.0,0.9,64,0.00,,---,0.00,VWS V14.01,2013-03-16 02:09:00,
2013-03-15 22:11:00,44.2,32.8,28.25,North,350,0.0,0.9,64,0.00,,---,0.00,VWS V14.01,2013-03-16 02:11:00,
2013-03-15 22:12:00,44.2,32.8,28.25,North,350,0.0,0.9,64,0.00,,---,0.00,VWS V14.01,2013-03-16 02:12:00,
2013-03-15 22:14:00,44.2,32.8,28.25,NW,316,0.0,0.9,64,0.00,,---,0.00,VWS V14.01,2013-03-16 02:14:00,
2013-03-15 22:17:00,44.2,32.8,28.25,West,278,0.0,0.9,64,0.00,,---,0.00,VWS V14.01,2013-03-16 02:17:00,
2013-03-15 22:19:00,44.2,32.8,28.25,West,278,0.9,0.9,64,0.00,,---,0.00,VWS V14.01,2013-03-16 02:19:00,
2013-03-15 22:22:00,44.2,32.8,28.25,West,278,0.9,0.9,64,0.00,,---,0.00,VWS V14.01,2013-03-16 02:22:00,
2013-03-15 22:24:00,44.2,32.8,28.25,NW,321,0.9,0.9,64,0.00,,---,0.00,VWS V14.01,2013-03-16 02:24:00,
2013-03-15 22:27:00,44.2,32.8,28.25,North,350,0.9,2.0,64,0.00,,---,0.00,VWS V14.01,2013-03-16 02:27:00,
2013-03-15 22:29:00,44.2,32.8,28.25,West,270,0.9,2.0,64,0.00,,---,0.00,VWS V14.01,2013-03-16 02:29:00,
2013-03-15 22:32:00,44.2,32.8,28.25,WNW,288,0.9,0.9,64,0.00,,---,0.00,VWS V14.01,2013-03-16 02:32:00,
2013-03-15 22:34:00,44.2,32.8,28.25,WNW,288,0.9,0.9,64,0.00,,---,0.00,VWS V14.01,2013-03-16 02:34:00,
2013-03-15 22:37:00,44.2,32.8,28.25,WNW,288,0.9,0.9,64,0.00,,---,0.00,VWS V14.01,2013-03-16 02:37:00,
2013-03-15 22:38:00,44.1,32.7,28.25,WNW,288,0.9,0.9,64,0.00,,---,0.00,VWS V14.01,2013-03-16 02:38:00,
2013-03-15 22:39:00,44.2,32.8,28.25,WNW,288,0.0,0.9,64,0.00,,---,0.00,VWS V14.01,2013-03-16 02:39:00,
2013-03-15 22:42:00,44.1,32.7,28.25,NNW,332,0.9,0.9,64,0.00,,---,0.00,VWS V14.01,2013-03-16 02:42:00,
2013-03-15 22:43:00,44.1,32.7,28.25,NNW,332,0.9,0.9,64,0.00,,---,0.00,VWS V14.01,2013-03-16 02:43:00,
2013-03-15 22:44:00,44.1,32.7,28.25,NNW,332,0.0,0.9,64,0.00,,---,0.00,VWS V14.01,2013-03-16 02:44:00,
2013-03-15 22:47:00,44.1,32.7,28.25,West,281,0.0,0.9,64,0.00,,---,0.00,VWS V14.01,2013-03-16 02:47:00,
2013-03-15 22:48:00,44.1,33.1,28.25,NNW,327,0.9,0.9,65,0.00,,---,0.00,VWS V14.01,2013-03-16 02:48:00,
2013-03-15 22:49:00,44.1,33.1,28.25,NNW,327,0.9,0.9,65,0.00,,---,0.00,VWS V14.01,2013-03-16 02:49:00,
2013-03-15 22:50:00,44.1,33.1,28.25,NNW,327,0.9,0.9,65,0.00,,---,0.00,VWS V14.01,2013-03-16 02:50:00,
2013-03-15 22:52:00,44.1,33.1,28.25,NNW,327,0.0,0.9,65,0.00,,---,0.00,VWS V14.01,2013-03-16 02:52:00,
2013-03-15 22:53:00,43.9,32.9,28.25,NNW,327,0.0,0.9,65,0.00,,---,0.00,VWS V14.01,2013-03-16 02:53:00,
2013-03-15 22:54:00,43.9,32.9,28.25,NNW,327,0.0,0.9,65,0.00,,---,0.00,VWS V14.01,2013-03-16 02:54:00,
2013-03-15 22:55:00,43.9,32.9,28.25,NNW,327,0.0,0.9,65,0.00,,---,0.00,VWS V14.01,2013-03-16 02:55:00,
2013-03-15 22:58:00,43.9,32.9,28.25,NNW,327,0.0,0.9,65,0.00,,---,0.00,VWS V14.01,2013-03-16 02:58:00,
2013-03-15 22:59:00,43.7,32.7,28.25,NNW,327,0.0,0.9,65,0.00,,---,0.00,VWS V14.01,2013-03-16 02:59:00,
2013-03-15 23:03:00,43.5,32.9,28.25,NNW,327,0.0,0.0,66,0.00,,---,0.00,VWS V14.01,2013-03-16 03:03:00,
2013-03-15 23:04:00,43.5,32.9,28.25,NNW,327,0.0,0.0,66,0.00,,---,0.00,VWS V14.01,2013-03-16 03:04:00,
2013-03-15 23:08:00,43.3,32.7,28.25,NNW,327,0.0,0.0,66,0.00,,---,0.00,VWS V14.01,2013-03-16 03:08:00,
2013-03-15 23:09:00,43.3,32.7,28.25,NNW,327,0.0,0.0,66,0.00,,---,0.00,VWS V14.01,2013-03-16 03:09:00,
2013-03-15 23:13:00,43.2,32.6,28.25,NNW,327,0.0,0.0,66,0.00,,---,0.00,VWS V14.01,2013-03-16 03:13:00,
2013-03-15 23:14:00,43.0,32.4,28.25,NNW,327,0.0,0.0,66,0.00,,---,0.00,VWS V14.01,2013-03-16 03:14:00,
2013-03-15 23:15:00,43.0,32.4,28.25,NNW,327,0.0,0.0,66,0.00,,---,0.00,VWS V14.01,2013-03-16 03:15:00,
2013-03-15 23:18:00,42.8,32.6,28.25,South,179,0.0,0.0,67,0.00,,---,0.00,VWS V14.01,2013-03-16 03:18:00,
2013-03-15 23:19:00,42.6,32.4,28.25,WSW,252,0.0,0.0,67,0.00,,---,0.00,VWS V14.01,2013-03-16 03:19:00,
2013-03-15 23:20:00,42.6,32.4,28.25,WSW,252,0.0,0.0,67,0.00,,---,0.00,VWS V14.01,2013-03-16 03:20:00,
2013-03-15 23:24:00,42.4,32.2,28.24,WSW,252,0.0,0.0,67,0.00,,---,0.00,VWS V14.01,2013-03-16 03:24:00,
2013-03-15 23:25:00,42.3,32.5,28.25,WSW,252,0.0,0.0,68,0.00,,---,0.00,VWS V14.01,2013-03-16 03:25:00,
2013-03-15 23:29:00,42.1,32.3,28.25,SW,226,0.0,0.0,68,0.00,,---,0.00,VWS V14.01,2013-03-16 03:29:00,
2013-03-15 23:30:00,42.1,32.3,28.25,SW,223,0.0,0.0,68,0.00,,---,0.00,VWS V14.01,2013-03-16 03:30:00,
2013-03-15 23:34:00,42.1,32.3,28.25,SW,223,0.9,0.9,68,0.00,,---,0.00,VWS V14.01,2013-03-16 03:34:00,
2013-03-15 23:35:00,42.1,32.3,28.25,NE,55,0.9,0.9,68,0.00,,---,0.00,VWS V14.01,2013-03-16 03:35:00,
2013-03-15 23:39:00,42.1,32.7,28.25,SE,140,0.9,0.9,69,0.00,,---,0.00,VWS V14.01,2013-03-16 03:39:00,
2013-03-15 23:40:00,42.1,32.7,28.25,NNW,330,0.9,0.9,69,0.00,,---,0.00,VWS V14.01,2013-03-16 03:40:00,
2013-03-15 23:44:00,42.3,32.5,28.24,NW,319,0.9,0.9,68,0.00,,---,0.00,VWS V14.01,2013-03-16 03:44:00,
2013-03-15 23:45:00,42.3,32.5,28.24,NW,319,0.9,0.9,68,0.00,,---,0.00,VWS V14.01,2013-03-16 03:45:00,
2013-03-15 23:46:00,42.3,32.5,28.24,NW,319,0.9,0.9,68,0.00,,---,0.00,VWS V14.01,2013-03-16 03:46:00,
2013-03-15 23:49:00,42.4,34.0,28.24,NW,319,0.9,0.9,72,0.00,,---,0.00,VWS V14.01,2013-03-16 03:49:00,
2013-03-15 23:50:00,42.4,32.6,28.24,NW,319,0.9,0.9,68,0.00,,---,0.00,VWS V14.01,2013-03-16 03:50:00,
2013-03-15 23:51:00,42.4,32.6,28.24,NW,319,0.0,0.9,68,0.00,,---,0.00,VWS V14.01,2013-03-16 03:51:00,
2013-03-15 23:54:00,42.6,32.8,28.24,NW,319,0.0,0.9,68,0.00,,---,0.00,VWS V14.01,2013-03-16 03:54:00,
2013-03-15 23:55:00,42.6,32.8,28.24,NW,318,0.0,0.9,68,0.00,,---,0.00,VWS V14.01,2013-03-16 03:55:00,
2013-03-15 23:56:00,42.6,32.8,28.24,ENE,69,0.0,0.9,68,0.00,,---,0.00,VWS V14.01,2013-03-16 03:56:00,
2013-03-15 23:59:00,42.6,32.8,28.24,ENE,69,0.0,0.9,68,0.00,,---,0.00,VWS V14.01,2013-03-16 03:59:00,